Wetterdaten: Dienstag, 06.08.2013
Datum Zeit Temp. Aussen +5cm Feuchte Auss Luftdruck Regen Sonnenschein Regendauer UV Solar Windben
06.08.2013 00:00 25,3 C 23,4 C 62 % 1010,9 hPa 0,0 l/m 0 min 0 min 0,0 UV-I 0 W/m 2,6 km/h (1 Bft)
06.08.2013 00:02 25,3 C 23,4 C 62 % 1010,9 hPa 0,0 l/m 0 min 0 min 0,0 UV-I 0 W/m 2,6 km/h (1 Bft)
06.08.2013 00:06 25,3 C 23,4 C 62 % 1010,9 hPa 0,0 l/m 0 min 0 min 0,0 UV-I 0 W/m 2,6 km/h (1 Bft)
06.08.2013 00:08 25,3 C 23,4 C 62 % 1011,0 hPa 0,0 l/m 0 min 0 min 0,0 UV-I 0 W/m 0,0 km/h (0 Bft)
06.08.2013 00:10 25,3 C 23,4 C 62 % 1011,0 hPa 0,0 l/m 0 min 0 min 0,0 UV-I 0 W/m 2,6 km/h (1 Bft)
06.08.2013 00:12 25,2 C 22,9 C 63 % 1010,9 hPa 0,0 l/m 0 min 0 min 0,0 UV-I 0 W/m 0,0 km/h (0 Bft)
06.08.2013 00:14 25,2 C 22,9 C 63 % 1010,9 hPa 0,0 l/m 0 min 0 min 0,0 UV-I 0 W/m 0,0 km/h (0 Bft)
06.08.2013 00:16 25,1 C 22,9 C 63 % 1010,9 hPa 0,0 l/m 0 min 2 min 0,0 UV-I 0 W/m 0,0 km/h (0 Bft)
06.08.2013 00:18 25,1 C 21,8 C 64 % 1010,9 hPa 0,0 l/m 0 min 2 min 0,0 UV-I 0 W/m 0,0 km/h (0 Bft)
06.08.2013 00:20 25,0 C 21,2 C 65 % 1010,9 hPa 0,0 l/m 0 min 2 min 0,0 UV-I 0 W/m 0,0 km/h (0 Bft)
06.08.2013 00:22 24,9 C 21,8 C 66 % 1010,9 hPa 0,0 l/m 0 min 0 min 0,0 UV-I 0 W/m 0,0 km/h (0 Bft)
06.08.2013 00:24 24,8 C 21,8 C 66 % 1010,9 hPa 0,0 l/m 0 min 0 min 0,0 UV-I 0 W/m 0,0 km/h (0 Bft)
06.08.2013 00:26 24,8 C 21,8 C 66 % 1011,0 hPa 0,0 l/m 0 min 0 min 0,0 UV-I 0 W/m 0,0 km/h (0 Bft)
06.08.2013 00:28 24,7 C 22,3 C 66 % 1010,9 hPa 0,0 l/m 0 min 0 min 0,0 UV-I 0 W/m 5,1 km/h (1 Bft)
06.08.2013 00:30 24,7 C 22,3 C 66 % 1010,9 hPa 0,0 l/m 0 min 0 min 0,0 UV-I 0 W/m 7,7 km/h (2 Bft)
06.08.2013 00:32 24,7 C 22,9 C 65 % 1011,0 hPa 0,0 l/m 0 min 0 min 0,0 UV-I 0 W/m 18,0 km/h (3 Bft)
06.08.2013 00:34 24,8 C 22,9 C 65 % 1011,0 hPa 0,0 l/m 0 min 0 min 0,0 UV-I 0 W/m 15,4 km/h (3 Bft)
06.08.2013 00:36 24,9 C 22,9 C 65 % 1011,0 hPa 0,0 l/m 0 min 0 min 0,0 UV-I 0 W/m 7,7 km/h (2 Bft)
06.08.2013 00:38 24,9 C 22,9 C 64 % 1011,0 hPa 0,0 l/m 0 min 0 min 0,0 UV-I 0 W/m 7,7 km/h (2 Bft)
06.08.2013 00:40 25,1 C 23,4 C 64 % 1011,0 hPa 0,0 l/m 0 min 0 min 0,0 UV-I 0 W/m 15,4 km/h (3 Bft)
06.08.2013 00:42 25,2 C 23,4 C 64 % 1011,0 hPa 0,0 l/m 0 min 0 min 0,0 UV-I 0 W/m 0,0 km/h (0 Bft)
06.08.2013 00:44 25,3 C 23,4 C 63 % 1011,0 hPa 0,0 l/m 0 min 0 min 0,0 UV-I 0 W/m 5,1 km/h (1 Bft)
06.08.2013 00:46 25,3 C 23,4 C 63 % 1011,1 hPa 0,0 l/m 0 min 0 min 0,0 UV-I 0 W/m 20,6 km/h (4 Bft)
06.08.2013 00:48 25,4 C 23,4 C 63 % 1011,1 hPa 0,0 l/m 0 min 0 min 0,0 UV-I 0 W/m 18,0 km/h (3 Bft)
06.08.2013 00:50 25,4 C 23,4 C 63 % 1011,1 hPa 0,0 l/m 0 min 0 min 0,0 UV-I 0 W/m 2,6 km/h (1 Bft)
06.08.2013 00:52 25,4 C 23,4 C 63 % 1011,1 hPa 0,0 l/m 0 min 0 min 0,0 UV-I 0 W/m 5,1 km/h (1 Bft)
06.08.2013 00:54 25,4 C 23,4 C 63 % 1011,1 hPa 0,0 l/m 0 min 0 min 0,0 UV-I 0 W/m 12,9 km/h (3 Bft)
06.08.2013 00:56 25,4 C 23,4 C 63 % 1011,1 hPa 0,0 l/m 0 min 0 min 0,0 UV-I 0 W/m 7,7 km/h (2 Bft)
06.08.2013 00:58 25,3 C 23,4 C 63 % 1011,1 hPa 0,0 l/m 0 min 0 min 0,0 UV-I 0 W/m 12,9 km/h (3 Bft)
06.08.2013 01:00 25,3 C 23,4 C 63 % 1011,1 hPa 0,0 l/m 0 min 0 min 0,0 UV-I 0 W/m 10,3 km/h (2 Bft)
06.08.2013 01:02 25,3 C 23,4 C 64 % 1011,2 hPa 0,0 l/m 0 min 0 min 0,0 UV-I 0 W/m 10,3 km/h (2 Bft)
06.08.2013 01:06 25,2 C 22,9 C 64 % 1011,2 hPa 0,0 l/m 0 min 0 min 0,0 UV-I 0 W/m 5,1 km/h (1 Bft)
06.08.2013 01:08 25,2 C 22,9 C 64 % 1011,2 hPa 0,0 l/m 0 min 0 min 0,0 UV-I 0 W/m 12,9 km/h (3 Bft)
06.08.2013 01:10 25,1 C 22,9 C 65 % 1011,2 hPa 0,0 l/m 0 min 0 min 0,0 UV-I 0 W/m 15,4 km/h (3 Bft)
06.08.2013 01:12 25,0 C 22,9 C 65 % 1011,2 hPa 0,0 l/m 0 min 0 min 0,0 UV-I 0 W/m 7,7 km/h (2 Bft)
06.08.2013 01:14 24,9 C 22,9 C 65 % 1011,2 hPa 0,0 l/m 0 min 0 min 0,0 UV-I 0 W/m 5,1 km/h (1 Bft)
06.08.2013 01:16 24,9 C 22,9 C 65 % 1011,3 hPa 0,0 l/m 0 min 0 min 0,0 UV-I 0 W/m 10,3 km/h (2 Bft)
06.08.2013 01:18 24,9 C 22,9 C 65 % 1011,3 hPa 0,0 l/m 0 min 0 min 0,0 UV-I 0 W/m 7,7 km/h (2 Bft)
06.08.2013 01:20 24,9 C 22,9 C 65 % 1011,3 hPa 0,0 l/m 0 min 0 min 0,0 UV-I 0 W/m 12,9 km/h (3 Bft)
06.08.2013 01:22 24,8 C 22,9 C 66 % 1011,2 hPa 0,0 l/m 0 min 0 min 0,0 UV-I 0 W/m 0,0 km/h (0 Bft)
06.08.2013 01:24 24,8 C 22,9 C 66 % 1011,3 hPa 0,0 l/m 0 min 0 min 0,0 UV-I 0 W/m 5,1 km/h (1 Bft)
06.08.2013 01:26 24,7 C 22,9 C 66 % 1011,3 hPa 0,0 l/m 0 min 0 min 0,0 UV-I 0 W/m 2,6 km/h (1 Bft)
06.08.2013 01:28 24,7 C 22,9 C 66 % 1011,3 hPa 0,0 l/m 0 min 0 min 0,0 UV-I 0 W/m 10,3 km/h (2 Bft)
06.08.2013 01:30 24,7 C 22,9 C 67 % 1011,3 hPa 0,0 l/m 0 min 0 min 0,0 UV-I 0 W/m 18,0 km/h (3 Bft)
06.08.2013 01:32 24,6 C 22,9 C 67 % 1011,3 hPa 0,0 l/m 0 min 0 min 0,0 UV-I 0 W/m 5,1 km/h (1 Bft)
06.08.2013 01:34 24,6 C 22,9 C 67 % 1011,3 hPa 0,0 l/m 0 min 0 min 0,0 UV-I 0 W/m 10,3 km/h (2 Bft)
06.08.2013 01:36 24,6 C 22,9 C 67 % 1011,4 hPa 0,0 l/m 0 min 0 min 0,0 UV-I 0 W/m 2,6 km/h (1 Bft)
06.08.2013 01:38 24,6 C 22,9 C 67 % 1011,4 hPa 0,0 l/m 0 min 0 min 0,0 UV-I 0 W/m 5,1 km/h (1 Bft)
06.08.2013 01:40 24,6 C 22,9 C 67 % 1011,4 hPa 0,0 l/m 0 min 0 min 0,0 UV-I 0 W/m 2,6 km/h (1 Bft)
06.08.2013 01:42 24,5 C 22,3 C 67 % 1011,4 hPa 0,0 l/m 0 min 0 min 0,0 UV-I 0 W/m 7,7 km/h (2 Bft)
06.08.2013 01:44 24,4 C 22,3 C 68 % 1011,4 hPa 0,0 l/m 0 min 0 min 0,0 UV-I 0 W/m 2,6 km/h (1 Bft)
06.08.2013 01:46 24,4 C 22,3 C 68 % 1011,4 hPa 0,0 l/m 0 min 0 min 0,0 UV-I 0 W/m 20,6 km/h (4 Bft)
06.08.2013 01:48 24,4 C 22,3 C 68 % 1011,5 hPa 0,0 l/m 0 min 0 min 0,0 UV-I 0 W/m 12,9 km/h (3 Bft)
06.08.2013 01:50 24,4 C 22,3 C 68 % 1011,5 hPa 0,0 l/m 0 min 0 min 0,0 UV-I 0 W/m 12,9 km/h (3 Bft)
06.08.2013 01:52 24,4 C 22,3 C 68 % 1011,5 hPa 0,0 l/m 0 min 0 min 0,0 UV-I 0 W/m 7,7 km/h (2 Bft)
06.08.2013 01:54 24,3 C 22,3 C 69 % 1011,5 hPa 0,0 l/m 0 min 0 min 0,0 UV-I 0 W/m 10,3 km/h (2 Bft)
06.08.2013 01:56 24,3 C 22,3 C 69 % 1011,6 hPa 0,0 l/m 0 min 0 min 0,0 UV-I 0 W/m 7,7 km/h (2 Bft)
06.08.2013 01:58 24,3 C 22,3 C 69 % 1011,6 hPa 0,0 l/m 0 min 0 min 0,0 UV-I 0 W/m 10,3 km/h (2 Bft)
06.08.2013 02:00 24,2 C 22,3 C 69 % 1011,8 hPa 0,0 l/m 0 min 0 min 0,0 UV-I 0 W/m 10,3 km/h (2 Bft)
06.08.2013 02:02 24,1 C 22,3 C 70 % 1012,0 hPa 0,0 l/m 0 min 0 min 0,0 UV-I 0 W/m 12,9 km/h (3 Bft)
06.08.2013 02:06 23,8 C 21,8 C 70 % 1012,0 hPa 0,0 l/m 0 min 0 min 0,0 UV-I 0 W/m 12,9 km/h (3 Bft)
06.08.2013 02:08 23,6 C 21,8 C 69 % 1012,0 hPa 0,0 l/m 0 min 0 min 0,0 UV-I 0 W/m 10,3 km/h (2 Bft)
06.08.2013 02:10 23,4 C 21,2 C 69 % 1012,1 hPa 0,0 l/m 0 min 0 min 0,0 UV-I 0 W/m 7,7 km/h (2 Bft)
06.08.2013 02:12 23,2 C 21,2 C 69 % 1012,2 hPa 0,0 l/m 0 min 0 min 0,0 UV-I 0 W/m 10,3 km/h (2 Bft)
06.08.2013 02:14 22,9 C 21,2 C 69 % 1012,1 hPa 0,0 l/m 0 min 0 min 0,0 UV-I 0 W/m 12,9 km/h (3 Bft)
06.08.2013 02:16 22,7 C 20,7 C 69 % 1012,2 hPa 0,0 l/m 0 min 0 min 0,0 UV-I 0 W/m 0,0 km/h (0 Bft)
06.08.2013 02:18 22,5 C 20,7 C 70 % 1012,2 hPa 0,0 l/m 0 min 0 min 0,0 UV-I 0 W/m 2,6 km/h (1 Bft)
06.08.2013 02:20 22,3 C 20,7 C 70 % 1012,3 hPa 0,0 l/m 0 min 0 min 0,0 UV-I 0 W/m 15,4 km/h (3 Bft)
06.08.2013 02:22 22,2 C 20,7 C 70 % 1012,3 hPa 0,0 l/m 0 min 0 min 0,0 UV-I 0 W/m 10,3 km/h (2 Bft)
06.08.2013 02:24 22,1 C 20,1 C 70 % 1012,4 hPa 0,0 l/m 0 min 0 min 0,0 UV-I 0 W/m 7,7 km/h (2 Bft)
06.08.2013 02:26 21,9 C 20,1 C 71 % 1012,4 hPa 0,0 l/m 0 min 0 min 0,0 UV-I 0 W/m 2,6 km/h (1 Bft)
06.08.2013 02:28 21,8 C 20,1 C 71 % 1012,4 hPa 0,0 l/m 0 min 0 min 0,0 UV-I 0 W/m 2,6 km/h (1 Bft)
06.08.2013 02:30 21,7 C 20,1 C 71 % 1012,5 hPa 0,0 l/m 0 min 0 min 0,0 UV-I 0 W/m 15,4 km/h (3 Bft)
06.08.2013 02:32 21,6 C 20,1 C 71 % 1012,5 hPa 0,0 l/m 0 min 0 min 0,0 UV-I 0 W/m 7,7 km/h (2 Bft)
06.08.2013 02:34 21,4 C 20,1 C 71 % 1012,6 hPa 0,0 l/m 0 min 0 min 0,0 UV-I 0 W/m 15,4 km/h (3 Bft)
06.08.2013 02:36 21,4 C 20,1 C 71 % 1012,6 hPa 0,0 l/m 0 min 0 min 0,0 UV-I 0 W/m 12,9 km/h (3 Bft)
06.08.2013 02:38 21,3 C 19,6 C 71 % 1012,6 hPa 0,0 l/m 0 min 0 min 0,0 UV-I 0 W/m 2,6 km/h (1 Bft)
06.08.2013 02:40 21,3 C 19,6 C 71 % 1012,6 hPa 0,0 l/m 0 min 0 min 0,0 UV-I 0 W/m 2,6 km/h (1 Bft)
06.08.2013 02:42 21,2 C 19,6 C 72 % 1012,7 hPa 0,0 l/m 0 min 0 min 0,0 UV-I 0 W/m 18,0 km/h (3 Bft)
06.08.2013 02:44 21,1 C 19,6 C 72 % 1012,7 hPa 0,0 l/m 0 min 0 min 0,0 UV-I 0 W/m 5,1 km/h (1 Bft)
06.08.2013 02:46 21,1 C 19,6 C 72 % 1012,7 hPa 0,0 l/m 0 min 0 min 0,0 UV-I 0 W/m 15,4 km/h (3 Bft)
06.08.2013 02:48 20,9 C 19,6 C 72 % 1012,7 hPa 0,0 l/m 0 min 0 min 0,0 UV-I 0 W/m 0,0 km/h (0 Bft)
06.08.2013 02:50 20,9 C 19,6 C 73 % 1012,8 hPa 0,0 l/m 0 min 0 min 0,0 UV-I 0 W/m 2,6 km/h (1 Bft)
06.08.2013 02:52 20,8 C 19,0 C 73 % 1012,8 hPa 0,0 l/m 0 min 0 min 0,0 UV-I 0 W/m 2,6 km/h (1 Bft)
06.08.2013 02:54 20,8 C 19,0 C 73 % 1012,9 hPa 0,0 l/m 0 min 0 min 0,0 UV-I 0 W/m 0,0 km/h (0 Bft)
06.08.2013 02:56 20,7 C 19,0 C 73 % 1012,8 hPa 0,0 l/m 0 min 0 min 0,0 UV-I 0 W/m 0,0 km/h (0 Bft)
06.08.2013 02:58 20,6 C 19,0 C 73 % 1012,9 hPa 0,0 l/m 0 min 0 min 0,0 UV-I 0 W/m 2,6 km/h (1 Bft)
06.08.2013 03:00 20,6 C 19,0 C 73 % 1012,9 hPa 0,0 l/m 0 min 0 min 0,0 UV-I 0 W/m 2,6 km/h (1 Bft)
06.08.2013 03:02 20,6 C 19,0 C 73 % 1013,0 hPa 0,0 l/m 0 min 0 min 0,0 UV-I 0 W/m 7,7 km/h (2 Bft)
06.08.2013 03:06 20,5 C 19,0 C 73 % 1013,1 hPa 0,0 l/m 0 min 0 min 0,0 UV-I 0 W/m 7,7 km/h (2 Bft)
06.08.2013 03:08 20,4 C 19,0 C 73 % 1013,1 hPa 0,0 l/m 0 min 0 min 0,0 UV-I 0 W/m 2,6 km/h (1 Bft)
06.08.2013 03:10 20,4 C 19,0 C 73 % 1013,1 hPa 0,0 l/m 0 min 0 min 0,0 UV-I 0 W/m 0,0 km/h (0 Bft)
06.08.2013 03:12 20,3 C 19,0 C 73 % 1013,1 hPa 0,0 l/m 0 min 0 min 0,0 UV-I 0 W/m 0,0 km/h (0 Bft)
06.08.2013 03:14 20,3 C 18,4 C 74 % 1013,2 hPa 0,0 l/m 0 min 0 min 0,0 UV-I 0 W/m 0,0 km/h (0 Bft)
06.08.2013 03:16 20,3 C 18,4 C 74 % 1013,2 hPa 0,0 l/m 0 min 0 min 0,0 UV-I 0 W/m 2,6 km/h (1 Bft)
06.08.2013 03:18 20,2 C 18,4 C 74 % 1013,2 hPa 0,0 l/m 0 min 0 min 0,0 UV-I 0 W/m 2,6 km/h (1 Bft)
06.08.2013 03:20 20,1 C 18,4 C 74 % 1013,2 hPa 0,0 l/m 0 min 0 min 0,0 UV-I 0 W/m 0,0 km/h (0 Bft)
06.08.2013 03:22 20,1 C 18,4 C 74 % 1013,3 hPa 0,0 l/m 0 min 0 min 0,0 UV-I 0 W/m 5,1 km/h (1 Bft)
06.08.2013 03:24 20,1 C 18,4 C 74 % 1013,3 hPa 0,0 l/m 0 min 0 min 0,0 UV-I 0 W/m 0,0 km/h (0 Bft)
06.08.2013 03:26 20,0 C 18,4 C 74 % 1013,3 hPa 0,0 l/m 0 min 0 min 0,0 UV-I 0 W/m 5,1 km/h (1 Bft)
06.08.2013 03:28 19,9 C 18,4 C 74 % 1013,3 hPa 0,0 l/m 0 min 0 min 0,0 UV-I 0 W/m 2,6 km/h (1 Bft)
06.08.2013 03:30 19,9 C 18,4 C 75 % 1013,3 hPa 0,0 l/m 0 min 0 min 0,0 UV-I 0 W/m 0,0 km/h (0 Bft)
06.08.2013 03:32 19,9 C 18,4 C 75 % 1013,3 hPa 0,0 l/m 0 min 0 min 0,0 UV-I 0 W/m 0,0 km/h (0 Bft)
06.08.2013 03:34 19,8 C 18,4 C 75 % 1013,3 hPa 0,0 l/m 0 min 0 min 0,0 UV-I 0 W/m 0,0 km/h (0 Bft)
06.08.2013 03:36 19,8 C 18,4 C 75 % 1013,4 hPa 0,0 l/m 0 min 0 min 0,0 UV-I 0 W/m 0,0 km/h (0 Bft)
06.08.2013 03:38 19,8 C 18,4 C 75 % 1013,4 hPa 0,0 l/m 0 min 0 min 0,0 UV-I 0 W/m 0,0 km/h (0 Bft)
06.08.2013 03:40 19,7 C 18,4 C 75 % 1013,4 hPa 0,0 l/m 0 min 0 min 0,0 UV-I 0 W/m 0,0 km/h (0 Bft)
06.08.2013 03:42 19,7 C 18,4 C 75 % 1013,4 hPa 0,0 l/m 0 min 0 min 0,0 UV-I 0 W/m 0,0 km/h (0 Bft)
06.08.2013 03:44 19,7 C 18,4 C 76 % 1013,4 hPa 0,0 l/m 0 min 0 min 0,0 UV-I 0 W/m 0,0 km/h (0 Bft)
06.08.2013 03:46 19,6 C 17,9 C 76 % 1013,5 hPa 0,0 l/m 0 min 0 min 0,0 UV-I 0 W/m 0,0 km/h (0 Bft)
06.08.2013 03:48 19,6 C 18,4 C 76 % 1013,5 hPa 0,0 l/m 0 min 0 min 0,0 UV-I 0 W/m 12,9 km/h (3 Bft)
06.08.2013 03:50 19,5 C 17,9 C 75 % 1013,5 hPa 0,0 l/m 0 min 0 min 0,0 UV-I 0 W/m 18,0 km/h (3 Bft)
06.08.2013 03:52 19,4 C 17,9 C 74 % 1013,5 hPa 0,0 l/m 0 min 0 min 0,0 UV-I 0 W/m 7,7 km/h (2 Bft)
06.08.2013 03:54 19,4 C 17,9 C 73 % 1013,5 hPa 0,0 l/m 0 min 0 min 0,0 UV-I 0 W/m 15,4 km/h (3 Bft)
06.08.2013 03:56 19,4 C 17,9 C 73 % 1013,6 hPa 0,0 l/m 0 min 0 min 0,0 UV-I 0 W/m 23,2 km/h (4 Bft)
06.08.2013 03:58 19,4 C 17,9 C 71 % 1013,5 hPa 0,0 l/m 0 min 0 min 0,0 UV-I 0 W/m 33,5 km/h (5 Bft)
06.08.2013 04:00 19,4 C 17,9 C 71 % 1013,5 hPa 0,0 l/m 0 min 0 min 0,0 UV-I 0 W/m 23,2 km/h (4 Bft)
06.08.2013 04:02 19,4 C 17,9 C 71 % 1013,5 hPa 0,0 l/m 0 min 0 min 0,0 UV-I 0 W/m 10,3 km/h (2 Bft)
06.08.2013 04:06 19,4 C 17,9 C 71 % 1013,5 hPa 0,0 l/m 0 min 0 min 0,0 UV-I 0 W/m 7,7 km/h (2 Bft)
06.08.2013 04:08 19,3 C 17,9 C 71 % 1013,7 hPa 0,0 l/m 0 min 0 min 0,0 UV-I 0 W/m 5,1 km/h (1 Bft)
06.08.2013 04:10 19,3 C 17,9 C 72 % 1013,7 hPa 0,0 l/m 0 min 0 min 0,0 UV-I 0 W/m 10,3 km/h (2 Bft)
06.08.2013 04:12 19,3 C 17,9 C 72 % 1013,7 hPa 0,0 l/m 0 min 0 min 0,0 UV-I 0 W/m 7,7 km/h (2 Bft)
06.08.2013 04:14 19,2 C 17,9 C 72 % 1013,6 hPa 0,0 l/m 0 min 0 min 0,0 UV-I 0 W/m 7,7 km/h (2 Bft)
06.08.2013 04:16 19,2 C 17,9 C 72 % 1013,6 hPa 0,0 l/m 0 min 0 min 0,0 UV-I 0 W/m 2,6 km/h (1 Bft)
06.08.2013 04:18 19,1 C 17,9 C 73 % 1013,6 hPa 0,0 l/m 0 min 0 min 0,0 UV-I 0 W/m 2,6 km/h (1 Bft)
06.08.2013 04:20 19,1 C 17,9 C 73 % 1013,5 hPa 0,0 l/m 0 min 0 min 0,0 UV-I 0 W/m 2,6 km/h (1 Bft)
06.08.2013 04:22 19,0 C 17,3 C 73 % 1013,5 hPa 0,0 l/m 0 min 0 min 0,0 UV-I 0 W/m 0,0 km/h (0 Bft)
06.08.2013 04:24 18,9 C 17,3 C 74 % 1013,5 hPa 0,0 l/m 0 min 0 min 0,0 UV-I 0 W/m 0,0 km/h (0 Bft)
06.08.2013 04:26 18,8 C 17,3 C 74 % 1013,5 hPa 0,0 l/m 0 min 0 min 0,0 UV-I 0 W/m 0,0 km/h (0 Bft)
06.08.2013 04:28 18,8 C 17,3 C 74 % 1013,4 hPa 0,0 l/m 0 min 0 min 0,0 UV-I 0 W/m 2,6 km/h (1 Bft)
06.08.2013 04:30 18,7 C 17,3 C 75 % 1013,4 hPa 0,0 l/m 0 min 0 min 0,0 UV-I 0 W/m 0,0 km/h (0 Bft)
06.08.2013 04:32 18,6 C 17,3 C 75 % 1013,4 hPa 0,0 l/m 0 min 0 min 0,0 UV-I 0 W/m 2,6 km/h (1 Bft)
06.08.2013 04:34 18,6 C 17,3 C 75 % 1013,3 hPa 0,0 l/m 0 min 0 min 0,0 UV-I 0 W/m 0,0 km/h (0 Bft)
06.08.2013 04:36 18,5 C 17,3 C 75 % 1013,4 hPa 0,0 l/m 0 min 0 min 0,0 UV-I 0 W/m 0,0 km/h (0 Bft)
06.08.2013 04:38 18,5 C 17,3 C 75 % 1013,4 hPa 0,0 l/m 0 min 0 min 0,0 UV-I 0 W/m 2,6 km/h (1 Bft)
06.08.2013 04:40 18,4 C 17,3 C 75 % 1013,5 hPa 0,0 l/m 0 min 0 min 0,0 UV-I 0 W/m 0,0 km/h (0 Bft)
06.08.2013 04:42 18,4 C 17,3 C 75 % 1013,5 hPa 0,0 l/m 0 min 0 min 0,0 UV-I 0 W/m 2,6 km/h (1 Bft)
06.08.2013 04:44 18,4 C 17,3 C 76 % 1013,6 hPa 0,0 l/m 0 min 0 min 0,0 UV-I 0 W/m 0,0 km/h (0 Bft)
06.08.2013 04:46 18,4 C 17,3 C 76 % 1013,6 hPa 0,0 l/m 0 min 0 min 0,0 UV-I 0 W/m 2,6 km/h (1 Bft)
06.08.2013 04:48 18,4 C 17,3 C 76 % 1013,6 hPa 0,0 l/m 0 min 0 min 0,0 UV-I 0 W/m 0,0 km/h (0 Bft)
06.08.2013 04:50 18,4 C 17,3 C 76 % 1013,6 hPa 0,0 l/m 0 min 0 min 0,0 UV-I 0 W/m 10,3 km/h (2 Bft)
06.08.2013 04:52 18,3 C 17,3 C 76 % 1013,6 hPa 0,0 l/m 0 min 0 min 0,0 UV-I 0 W/m 5,1 km/h (1 Bft)
06.08.2013 04:54 18,3 C 17,3 C 76 % 1013,6 hPa 0,0 l/m 0 min 0 min 0,0 UV-I 0 W/m 0,0 km/h (0 Bft)
06.08.2013 04:56 18,3 C 16,8 C 76 % 1013,6 hPa 0,0 l/m 0 min 0 min 0,0 UV-I 0 W/m 2,6 km/h (1 Bft)
06.08.2013 04:58 18,3 C 16,8 C 76 % 1013,6 hPa 0,0 l/m 0 min 0 min 0,0 UV-I 0 W/m 0,0 km/h (0 Bft)
06.08.2013 05:00 18,3 C 16,8 C 76 % 1013,6 hPa 0,0 l/m 0 min 0 min 0,0 UV-I 0 W/m 0,0 km/h (0 Bft)
06.08.2013 05:02 18,2 C 16,8 C 76 % 1013,7 hPa 0,0 l/m 0 min 0 min 0,0 UV-I 0 W/m 0,0 km/h (0 Bft)
06.08.2013 05:06 18,1 C 16,8 C 77 % 1013,9 hPa 0,0 l/m 0 min 0 min 0,0 UV-I 0 W/m 0,0 km/h (0 Bft)
06.08.2013 05:08 17,9 C 16,8 C 78 % 1014,0 hPa 0,0 l/m 0 min 0 min 0,0 UV-I 0 W/m 0,0 km/h (0 Bft)
06.08.2013 05:10 17,9 C 16,2 C 78 % 1013,9 hPa 0,0 l/m 0 min 0 min 0,0 UV-I 0 W/m 0,0 km/h (0 Bft)
06.08.2013 05:12 17,9 C 16,2 C 78 % 1014,0 hPa 0,0 l/m 0 min 0 min 0,0 UV-I 0 W/m 0,0 km/h (0 Bft)
06.08.2013 05:14 17,8 C 16,2 C 78 % 1013,9 hPa 0,0 l/m 0 min 0 min 0,0 UV-I 0 W/m 0,0 km/h (0 Bft)
06.08.2013 05:16 17,8 C 16,2 C 78 % 1013,9 hPa 0,0 l/m 0 min 0 min 0,0 UV-I 0 W/m 0,0 km/h (0 Bft)
06.08.2013 05:18 17,8 C 16,2 C 78 % 1014,0 hPa 0,0 l/m 0 min 0 min 0,0 UV-I 0 W/m 0,0 km/h (0 Bft)
06.08.2013 05:20 17,8 C 16,8 C 78 % 1014,1 hPa 0,0 l/m 0 min 0 min 0,0 UV-I 0 W/m 0,0 km/h (0 Bft)
06.08.2013 05:22 17,8 C 16,2 C 78 % 1014,0 hPa 0,0 l/m 0 min 0 min 0,0 UV-I 0 W/m 0,0 km/h (0 Bft)
06.08.2013 05:24 17,8 C 16,2 C 78 % 1014,0 hPa 0,0 l/m 0 min 0 min 0,0 UV-I 0 W/m 0,0 km/h (0 Bft)
06.08.2013 05:26 17,7 C 16,2 C 78 % 1013,9 hPa 0,0 l/m 0 min 0 min 0,0 UV-I 0 W/m 0,0 km/h (0 Bft)
06.08.2013 05:28 17,7 C 16,2 C 79 % 1013,9 hPa 0,0 l/m 0 min 0 min 0,0 UV-I 0 W/m 0,0 km/h (0 Bft)
06.08.2013 05:30 17,7 C 16,2 C 79 % 1013,9 hPa 0,0 l/m 0 min 0 min 0,0 UV-I 0 W/m 0,0 km/h (0 Bft)
06.08.2013 05:32 17,6 C 16,2 C 79 % 1013,9 hPa 0,0 l/m 0 min 0 min 0,0 UV-I 0 W/m 0,0 km/h (0 Bft)
06.08.2013 05:34 17,6 C 16,2 C 79 % 1013,9 hPa 0,0 l/m 0 min 0 min 0,0 UV-I 0 W/m 0,0 km/h (0 Bft)
06.08.2013 05:36 17,6 C 16,2 C 79 % 1013,9 hPa 0,0 l/m 0 min 0 min 0,0 UV-I 0 W/m 0,0 km/h (0 Bft)
06.08.2013 05:38 17,6 C 16,2 C 79 % 1014,0 hPa 0,0 l/m 0 min 0 min 0,0 UV-I 0 W/m 0,0 km/h (0 Bft)
06.08.2013 05:40 17,6 C 16,2 C 79 % 1014,0 hPa 0,0 l/m 0 min 0 min 0,0 UV-I 0 W/m 0,0 km/h (0 Bft)
06.08.2013 05:42 17,5 C 16,2 C 79 % 1014,0 hPa 0,0 l/m 0 min 0 min 0,0 UV-I 0 W/m 0,0 km/h (0 Bft)
06.08.2013 05:44 17,5 C 16,2 C 79 % 1014,0 hPa 0,0 l/m 0 min 0 min 0,0 UV-I 0 W/m 0,0 km/h (0 Bft)
06.08.2013 05:46 17,4 C 16,2 C 80 % 1014,0 hPa 0,0 l/m 0 min 0 min 0,0 UV-I 0 W/m 0,0 km/h (0 Bft)
06.08.2013 05:48 17,4 C 16,2 C 80 % 1014,0 hPa 0,0 l/m 0 min 0 min 0,0 UV-I 0 W/m 2,6 km/h (1 Bft)
06.08.2013 05:50 17,4 C 16,2 C 80 % 1013,9 hPa 0,0 l/m 0 min 0 min 0,0 UV-I 0 W/m 0,0 km/h (0 Bft)
06.08.2013 05:52 17,4 C 16,2 C 80 % 1014,0 hPa 0,0 l/m 0 min 0 min 0,0 UV-I 0 W/m 2,6 km/h (1 Bft)
06.08.2013 05:54 17,4 C 16,2 C 80 % 1014,0 hPa 0,0 l/m 0 min 0 min 0,0 UV-I 0 W/m 5,1 km/h (1 Bft)
06.08.2013 05:56 17,4 C 16,2 C 80 % 1014,2 hPa 0,0 l/m 0 min 0 min 0,0 UV-I 0 W/m 2,6 km/h (1 Bft)
06.08.2013 05:58 17,4 C 16,2 C 80 % 1014,2 hPa 0,0 l/m 0 min 0 min 0,0 UV-I 0 W/m 0,0 km/h (0 Bft)
06.08.2013 06:00 17,5 C 16,2 C 80 % 1014,2 hPa 0,0 l/m 0 min 0 min 0,0 UV-I 0 W/m 0,0 km/h (0 Bft)
06.08.2013 06:02 17,5 C 16,2 C 80 % 1014,2 hPa 0,0 l/m 0 min 0 min 0,0 UV-I 0 W/m 2,6 km/h (1 Bft)
06.08.2013 06:06 17,4 C 16,2 C 80 % 1014,2 hPa 0,0 l/m 0 min 0 min 0,0 UV-I 0 W/m 0,0 km/h (0 Bft)
06.08.2013 06:08 17,4 C 16,2 C 80 % 1014,2 hPa 0,0 l/m 0 min 0 min 0,0 UV-I 5 W/m 0,0 km/h (0 Bft)
06.08.2013 06:10 17,4 C 16,2 C 80 % 1014,2 hPa 0,0 l/m 0 min 0 min 0,0 UV-I 5 W/m 0,0 km/h (0 Bft)
06.08.2013 06:12 17,3 C 16,2 C 81 % 1014,2 hPa 0,0 l/m 0 min 0 min 0,0 UV-I 5 W/m 0,0 km/h (0 Bft)
06.08.2013 06:14 17,3 C 16,2 C 81 % 1014,2 hPa 0,0 l/m 0 min 0 min 0,0 UV-I 7 W/m 0,0 km/h (0 Bft)
06.08.2013 06:16 17,3 C 16,2 C 81 % 1014,2 hPa 0,0 l/m 0 min 0 min 0,0 UV-I 7 W/m 0,0 km/h (0 Bft)
06.08.2013 06:18 17,3 C 16,2 C 81 % 1014,3 hPa 0,0 l/m 0 min 0 min 0,0 UV-I 11 W/m 2,6 km/h (1 Bft)
06.08.2013 06:20 17,3 C 16,2 C 81 % 1014,3 hPa 0,0 l/m 0 min 0 min 0,0 UV-I 11 W/m 2,6 km/h (1 Bft)
06.08.2013 06:22 17,3 C 16,2 C 81 % 1014,3 hPa 0,0 l/m 0 min 0 min 0,0 UV-I 12 W/m 2,6 km/h (1 Bft)
06.08.2013 06:24 17,3 C 16,2 C 81 % 1014,3 hPa 0,0 l/m 0 min 0 min 0,0 UV-I 14 W/m 2,6 km/h (1 Bft)
06.08.2013 06:26 17,3 C 16,2 C 82 % 1014,4 hPa 0,0 l/m 0 min 0 min 0,0 UV-I 14 W/m 0,0 km/h (0 Bft)
06.08.2013 06:28 17,3 C 16,2 C 82 % 1014,4 hPa 0,0 l/m 0 min 0 min 0,0 UV-I 16 W/m 0,0 km/h (0 Bft)
06.08.2013 06:30 17,2 C 16,2 C 82 % 1014,4 hPa 0,0 l/m 0 min 0 min 0,0 UV-I 16 W/m 0,0 km/h (0 Bft)
06.08.2013 06:32 17,2 C 16,2 C 82 % 1014,4 hPa 0,0 l/m 0 min 0 min 0,0 UV-I 16 W/m 2,6 km/h (1 Bft)
06.08.2013 06:34 17,2 C 16,2 C 82 % 1014,5 hPa 0,0 l/m 0 min 0 min 0,0 UV-I 18 W/m 5,1 km/h (1 Bft)
06.08.2013 06:36 17,1 C 16,2 C 82 % 1014,5 hPa 0,0 l/m 0 min 0 min 0,0 UV-I 19 W/m 0,0 km/h (0 Bft)
06.08.2013 06:38 17,1 C 15,7 C 83 % 1014,5 hPa 0,0 l/m 0 min 0 min 0,0 UV-I 21 W/m 0,0 km/h (0 Bft)
06.08.2013 06:40 17,1 C 15,7 C 83 % 1014,5 hPa 0,0 l/m 0 min 0 min 0,0 UV-I 21 W/m 2,6 km/h (1 Bft)
06.08.2013 06:42 17,0 C 15,7 C 83 % 1014,5 hPa 0,0 l/m 0 min 0 min 0,0 UV-I 23 W/m 2,6 km/h (1 Bft)
06.08.2013 06:44 17,0 C 15,7 C 83 % 1014,5 hPa 0,0 l/m 0 min 0 min 0,0 UV-I 23 W/m 0,0 km/h (0 Bft)
06.08.2013 06:46 16,9 C 15,7 C 83 % 1014,5 hPa 0,0 l/m 0 min 0 min 0,0 UV-I 25 W/m 2,6 km/h (1 Bft)
06.08.2013 06:48 16,9 C 15,7 C 83 % 1014,6 hPa 0,0 l/m 0 min 0 min 0,0 UV-I 26 W/m 0,0 km/h (0 Bft)
06.08.2013 06:50 16,9 C 15,7 C 83 % 1014,5 hPa 0,0 l/m 0 min 0 min 0,0 UV-I 26 W/m 0,0 km/h (0 Bft)
06.08.2013 06:52 16,9 C 15,7 C 84 % 1014,6 hPa 0,0 l/m 0 min 0 min 0,0 UV-I 26 W/m 0,0 km/h (0 Bft)
06.08.2013 06:54 16,9 C 15,7 C 84 % 1014,7 hPa 0,0 l/m 0 min 0 min 0,0 UV-I 26 W/m 2,6 km/h (1 Bft)
06.08.2013 06:56 16,9 C 15,7 C 84 % 1014,7 hPa 0,0 l/m 0 min 0 min 0,0 UV-I 26 W/m 0,0 km/h (0 Bft)
06.08.2013 06:58 16,9 C 15,7 C 84 % 1014,7 hPa 0,0 l/m 0 min 0 min 0,0 UV-I 33 W/m 2,6 km/h (1 Bft)
06.08.2013 07:00 16,9 C 15,7 C 84 % 1014,8 hPa 0,0 l/m 0 min 0 min 0,0 UV-I 39 W/m 2,6 km/h (1 Bft)
06.08.2013 07:02 16,9 C 16,2 C 84 % 1014,8 hPa 0,0 l/m 0 min 0 min 0,0 UV-I 37 W/m 0,0 km/h (0 Bft)
06.08.2013 07:06 16,9 C 16,2 C 84 % 1014,8 hPa 0,0 l/m 0 min 0 min 0,0 UV-I 35 W/m 2,6 km/h (1 Bft)
06.08.2013 07:08 17,0 C 16,2 C 84 % 1014,8 hPa 0,0 l/m 0 min 0 min 0,0 UV-I 37 W/m 2,6 km/h (1 Bft)
06.08.2013 07:10 17,0 C 16,2 C 84 % 1014,8 hPa 0,0 l/m 0 min 0 min 0,0 UV-I 63 W/m 2,6 km/h (1 Bft)
06.08.2013 07:12 17,1 C 16,2 C 84 % 1014,8 hPa 0,0 l/m 0 min 0 min 0,0 UV-I 63 W/m 0,0 km/h (0 Bft)
06.08.2013 07:14 17,2 C 16,2 C 84 % 1014,8 hPa 0,0 l/m 0 min 0 min 0,0 UV-I 62 W/m 5,1 km/h (1 Bft)
06.08.2013 07:16 17,3 C 16,8 C 84 % 1014,8 hPa 0,0 l/m 0 min 0 min 0,0 UV-I 63 W/m 2,6 km/h (1 Bft)
06.08.2013 07:18 17,4 C 16,8 C 84 % 1014,9 hPa 0,0 l/m 0 min 0 min 0,0 UV-I 72 W/m 0,0 km/h (0 Bft)
06.08.2013 07:20 17,4 C 16,8 C 83 % 1014,9 hPa 0,0 l/m 0 min 0 min 0,0 UV-I 65 W/m 0,0 km/h (0 Bft)
06.08.2013 07:22 17,6 C 16,8 C 84 % 1014,9 hPa 0,0 l/m 0 min 0 min 0,0 UV-I 74 W/m 0,0 km/h (0 Bft)
06.08.2013 07:24 17,6 C 16,8 C 83 % 1014,9 hPa 0,0 l/m 0 min 0 min 0,0 UV-I 74 W/m 2,6 km/h (1 Bft)
06.08.2013 07:26 17,6 C 17,3 C 83 % 1014,9 hPa 0,0 l/m 0 min 0 min 0,0 UV-I 81 W/m 2,6 km/h (1 Bft)
06.08.2013 07:28 17,7 C 17,3 C 83 % 1015,0 hPa 0,0 l/m 0 min 0 min 0,0 UV-I 69 W/m 0,0 km/h (0 Bft)
06.08.2013 07:30 17,7 C 17,3 C 83 % 1015,0 hPa 0,0 l/m 0 min 0 min 0,0 UV-I 65 W/m 0,0 km/h (0 Bft)
06.08.2013 07:32 17,7 C 17,3 C 82 % 1015,0 hPa 0,0 l/m 0 min 0 min 0,0 UV-I 62 W/m 2,6 km/h (1 Bft)
06.08.2013 07:34 17,7 C 17,3 C 82 % 1015,1 hPa 0,0 l/m 0 min 0 min 0,0 UV-I 72 W/m 2,6 km/h (1 Bft)
06.08.2013 07:36 17,8 C 17,3 C 82 % 1015,1 hPa 0,0 l/m 0 min 0 min 0,0 UV-I 76 W/m 2,6 km/h (1 Bft)
06.08.2013 07:38 17,8 C 17,3 C 82 % 1015,2 hPa 0,0 l/m 0 min 0 min 0,0 UV-I 69 W/m 0,0 km/h (0 Bft)
06.08.2013 07:40 17,8 C 17,3 C 82 % 1015,1 hPa 0,0 l/m 0 min 0 min 0,0 UV-I 70 W/m 0,0 km/h (0 Bft)
06.08.2013 07:42 17,8 C 17,3 C 83 % 1015,1 hPa 0,0 l/m 0 min 0 min 0,0 UV-I 70 W/m 0,0 km/h (0 Bft)
06.08.2013 07:44 17,8 C 17,3 C 82 % 1015,1 hPa 0,0 l/m 0 min 0 min 0,0 UV-I 76 W/m 0,0 km/h (0 Bft)
06.08.2013 07:46 17,9 C 17,3 C 82 % 1015,1 hPa 0,0 l/m 0 min 0 min 0,0 UV-I 74 W/m 0,0 km/h (0 Bft)
06.08.2013 07:48 17,9 C 17,3 C 82 % 1015,1 hPa 0,0 l/m 0 min 0 min 0,0 UV-I 79 W/m 2,6 km/h (1 Bft)
06.08.2013 07:50 17,9 C 17,3 C 82 % 1015,1 hPa 0,0 l/m 0 min 0 min 0,0 UV-I 93 W/m 2,6 km/h (1 Bft)
06.08.2013 07:52 17,9 C 17,9 C 82 % 1015,2 hPa 0,0 l/m 0 min 0 min 0,0 UV-I 97 W/m 0,0 km/h (0 Bft)
06.08.2013 07:54 17,9 C 17,9 C 82 % 1015,1 hPa 0,0 l/m 0 min 0 min 0,0 UV-I 114 W/m 0,0 km/h (0 Bft)
06.08.2013 07:56 18,0 C 17,9 C 82 % 1015,1 hPa 0,0 l/m 0 min 0 min 0,0 UV-I 125 W/m 0,0 km/h (0 Bft)
06.08.2013 07:58 18,0 C 17,9 C 82 % 1015,1 hPa 0,0 l/m 0 min 0 min 0,0 UV-I 107 W/m 2,6 km/h (1 Bft)
06.08.2013 08:00 18,0 C 17,9 C 82 % 1015,0 hPa 0,0 l/m 0 min 0 min 0,0 UV-I 105 W/m 2,6 km/h (1 Bft)
06.08.2013 08:02 18,0 C 17,9 C 82 % 1015,1 hPa 0,0 l/m 0 min 0 min 0,0 UV-I 123 W/m 2,6 km/h (1 Bft)
06.08.2013 08:06 18,0 C 17,9 C 82 % 1015,1 hPa 0,0 l/m 0 min 0 min 0,0 UV-I 146 W/m 2,6 km/h (1 Bft)
06.08.2013 08:08 18,1 C 17,9 C 82 % 1015,1 hPa 0,0 l/m 0 min 0 min 0,0 UV-I 155 W/m 0,0 km/h (0 Bft)
06.08.2013 08:10 18,1 C 17,9 C 82 % 1015,2 hPa 0,0 l/m 0 min 0 min 0,0 UV-I 144 W/m 2,6 km/h (1 Bft)
06.08.2013 08:12 18,1 C 17,9 C 82 % 1015,3 hPa 0,0 l/m 0 min 0 min 0,0 UV-I 144 W/m 7,7 km/h (2 Bft)
06.08.2013 08:14 18,2 C 17,9 C 81 % 1015,2 hPa 0,0 l/m 0 min 0 min 0,0 UV-I 141 W/m 7,7 km/h (2 Bft)
06.08.2013 08:16 18,2 C 17,9 C 82 % 1015,2 hPa 0,0 l/m 0 min 0 min 0,0 UV-I 135 W/m 7,7 km/h (2 Bft)
06.08.2013 08:18 18,2 C 17,9 C 82 % 1015,2 hPa 0,0 l/m 0 min 0 min 0,0 UV-I 163 W/m 2,6 km/h (1 Bft)
06.08.2013 08:20 18,3 C 17,9 C 82 % 1015,2 hPa 0,0 l/m 0 min 0 min 0,0 UV-I 176 W/m 2,6 km/h (1 Bft)
06.08.2013 08:22 18,3 C 17,9 C 81 % 1015,3 hPa 0,0 l/m 0 min 0 min 0,0 UV-I 149 W/m 5,1 km/h (1 Bft)
06.08.2013 08:24 18,4 C 18,4 C 81 % 1015,3 hPa 0,0 l/m 2 min 0 min 0,0 UV-I 185 W/m 0,0 km/h (0 Bft)
06.08.2013 08:26 18,4 C 18,4 C 81 % 1015,2 hPa 0,0 l/m 0 min 0 min 0,0 UV-I 163 W/m 0,0 km/h (0 Bft)
06.08.2013 08:28 18,4 C 18,4 C 81 % 1015,3 hPa 0,0 l/m 0 min 0 min 0,0 UV-I 171 W/m 7,7 km/h (2 Bft)
06.08.2013 08:30 18,4 C 18,4 C 81 % 1015,5 hPa 0,0 l/m 0 min 0 min 0,0 UV-I 169 W/m 5,1 km/h (1 Bft)
06.08.2013 08:32 18,5 C 18,4 C 81 % 1015,4 hPa 0,0 l/m 0 min 0 min 0,0 UV-I 169 W/m 2,6 km/h (1 Bft)
06.08.2013 08:34 18,5 C 18,4 C 81 % 1015,4 hPa 0,0 l/m 0 min 0 min 0,0 UV-I 179 W/m 0,0 km/h (0 Bft)
06.08.2013 08:36 18,6 C 18,4 C 81 % 1015,5 hPa 0,0 l/m 0 min 0 min 0,0 UV-I 165 W/m 0,0 km/h (0 Bft)
06.08.2013 08:38 18,6 C 18,4 C 81 % 1015,5 hPa 0,0 l/m 0 min 0 min 0,0 UV-I 176 W/m 0,0 km/h (0 Bft)
06.08.2013 08:40 18,7 C 19,0 C 81 % 1015,5 hPa 0,0 l/m 0 min 0 min 0,0 UV-I 169 W/m 7,7 km/h (2 Bft)
06.08.2013 08:42 18,7 C 18,4 C 80 % 1015,5 hPa 0,0 l/m 0 min 0 min 0,0 UV-I 144 W/m 0,0 km/h (0 Bft)
06.08.2013 08:44 18,7 C 18,4 C 81 % 1015,5 hPa 0,0 l/m 0 min 0 min 0,0 UV-I 134 W/m 2,6 km/h (1 Bft)
06.08.2013 08:46 18,7 C 18,4 C 80 % 1015,5 hPa 0,0 l/m 0 min 0 min 0,0 UV-I 151 W/m 7,7 km/h (2 Bft)
06.08.2013 08:48 18,7 C 18,4 C 80 % 1015,5 hPa 0,0 l/m 0 min 0 min 0,0 UV-I 156 W/m 2,6 km/h (1 Bft)
06.08.2013 08:50 18,6 C 17,9 C 80 % 1015,5 hPa 0,0 l/m 0 min 0 min 0,0 UV-I 155 W/m 2,6 km/h (1 Bft)
06.08.2013 08:52 18,6 C 17,9 C 80 % 1015,5 hPa 0,0 l/m 0 min 0 min 0,5 UV-I 155 W/m 18,0 km/h (3 Bft)
06.08.2013 08:54 18,6 C 17,9 C 80 % 1015,6 hPa 0,0 l/m 2 min 0 min 0,5 UV-I 353 W/m 2,6 km/h (1 Bft)
06.08.2013 08:56 18,6 C 17,9 C 80 % 1015,5 hPa 0,0 l/m 2 min 0 min 0,5 UV-I 353 W/m 2,6 km/h (1 Bft)
06.08.2013 08:58 18,7 C 17,9 C 80 % 1015,6 hPa 0,0 l/m 2 min 0 min 0,5 UV-I 353 W/m 0,0 km/h (0 Bft)
06.08.2013 09:00 18,7 C 17,9 C 80 % 1015,6 hPa 0,0 l/m 2 min 0 min 0,6 UV-I 362 W/m 0,0 km/h (0 Bft)
06.08.2013 09:02 18,8 C 17,9 C 80 % 1015,6 hPa 0,0 l/m 2 min 0 min 0,6 UV-I 366 W/m 2,6 km/h (1 Bft)
06.08.2013 09:06 19,0 C 17,9 C 80 % 1015,7 hPa 0,0 l/m 2 min 0 min 0,7 UV-I 376 W/m 2,6 km/h (1 Bft)
06.08.2013 09:08 19,1 C 17,9 C 80 % 1015,6 hPa 0,0 l/m 2 min 0 min 0,7 UV-I 381 W/m 5,1 km/h (1 Bft)
06.08.2013 09:10 19,2 C 17,9 C 79 % 1015,7 hPa 0,0 l/m 2 min 0 min 0,8 UV-I 387 W/m 2,6 km/h (1 Bft)
06.08.2013 09:12 19,3 C 17,9 C 78 % 1015,7 hPa 0,0 l/m 2 min 0 min 0,8 UV-I 396 W/m 5,1 km/h (1 Bft)
06.08.2013 09:14 19,3 C 17,9 C 78 % 1015,7 hPa 0,0 l/m 2 min 0 min 0,9 UV-I 403 W/m 10,3 km/h (2 Bft)
06.08.2013 09:16 19,4 C 18,4 C 78 % 1015,6 hPa 0,0 l/m 2 min 0 min 0,9 UV-I 415 W/m 0,0 km/h (0 Bft)
06.08.2013 09:18 19,5 C 18,4 C 78 % 1015,6 hPa 0,0 l/m 2 min 0 min 0,9 UV-I 410 W/m 2,6 km/h (1 Bft)
06.08.2013 09:20 19,6 C 18,4 C 78 % 1015,6 hPa 0,0 l/m 2 min 0 min 0,9 UV-I 413 W/m 2,6 km/h (1 Bft)
06.08.2013 09:22 19,7 C 18,4 C 78 % 1015,8 hPa 0,0 l/m 2 min 0 min 1,0 UV-I 420 W/m 0,0 km/h (0 Bft)
06.08.2013 09:24 19,8 C 18,4 C 77 % 1015,8 hPa 0,0 l/m 2 min 0 min 1,0 UV-I 429 W/m 15,4 km/h (3 Bft)
06.08.2013 09:26 19,8 C 18,4 C 76 % 1015,8 hPa 0,0 l/m 2 min 0 min 1,1 UV-I 431 W/m 18,0 km/h (3 Bft)
06.08.2013 09:28 19,9 C 18,4 C 77 % 1015,8 hPa 0,0 l/m 2 min 0 min 1,1 UV-I 432 W/m 12,9 km/h (3 Bft)
06.08.2013 09:30 19,9 C 18,4 C 76 % 1015,8 hPa 0,0 l/m 2 min 0 min 1,1 UV-I 439 W/m 10,3 km/h (2 Bft)
06.08.2013 09:32 20,0 C 19,0 C 76 % 1015,8 hPa 0,0 l/m 2 min 0 min 1,2 UV-I 439 W/m 10,3 km/h (2 Bft)
06.08.2013 09:34 20,1 C 19,0 C 76 % 1015,8 hPa 0,0 l/m 2 min 0 min 1,2 UV-I 452 W/m 2,6 km/h (1 Bft)
06.08.2013 09:36 20,1 C 19,0 C 76 % 1015,8 hPa 0,0 l/m 2 min 0 min 1,2 UV-I 455 W/m 2,6 km/h (1 Bft)
06.08.2013 09:38 20,2 C 19,0 C 76 % 1015,9 hPa 0,0 l/m 2 min 0 min 1,3 UV-I 455 W/m 0,0 km/h (0 Bft)
06.08.2013 09:40 20,3 C 19,6 C 75 % 1015,9 hPa 0,0 l/m 2 min 0 min 1,3 UV-I 473 W/m 12,9 km/h (3 Bft)
06.08.2013 09:42 20,3 C 20,1 C 76 % 1015,8 hPa 0,0 l/m 2 min 0 min 1,3 UV-I 461 W/m 2,6 km/h (1 Bft)
06.08.2013 09:44 20,4 C 20,1 C 74 % 1015,9 hPa 0,0 l/m 2 min 0 min 1,4 UV-I 489 W/m 15,4 km/h (3 Bft)
06.08.2013 09:46 20,4 C 21,2 C 74 % 1015,9 hPa 0,0 l/m 2 min 0 min 1,4 UV-I 501 W/m 15,4 km/h (3 Bft)
06.08.2013 09:48 20,4 C 21,8 C 74 % 1015,8 hPa 0,0 l/m 2 min 0 min 1,4 UV-I 499 W/m 2,6 km/h (1 Bft)
06.08.2013 09:50 20,4 C 22,3 C 74 % 1015,9 hPa 0,0 l/m 2 min 0 min 1,5 UV-I 503 W/m 5,1 km/h (1 Bft)
06.08.2013 09:52 20,6 C 23,4 C 74 % 1015,9 hPa 0,0 l/m 2 min 0 min 1,5 UV-I 508 W/m 5,1 km/h (1 Bft)
06.08.2013 09:54 20,7 C 23,4 C 74 % 1015,9 hPa 0,0 l/m 2 min 0 min 1,5 UV-I 508 W/m 0,0 km/h (0 Bft)
06.08.2013 09:56 20,8 C 24,0 C 73 % 1015,9 hPa 0,0 l/m 2 min 0 min 1,6 UV-I 519 W/m 2,6 km/h (1 Bft)
06.08.2013 09:58 20,9 C 24,0 C 72 % 1015,9 hPa 0,0 l/m 2 min 0 min 1,7 UV-I 540 W/m 5,1 km/h (1 Bft)
06.08.2013 10:00 21,2 C 24,6 C 73 % 1015,8 hPa 0,0 l/m 2 min 0 min 1,7 UV-I 573 W/m 0,0 km/h (0 Bft)
06.08.2013 10:02 21,3 C 25,1 C 72 % 1015,8 hPa 0,0 l/m 2 min 0 min 1,8 UV-I 578 W/m 2,6 km/h (1 Bft)
06.08.2013 10:06 21,4 C 26,2 C 71 % 1015,8 hPa 0,0 l/m 2 min 0 min 1,2 UV-I 555 W/m 5,1 km/h (1 Bft)
06.08.2013 10:08 21,4 C 25,7 C 71 % 1015,9 hPa 0,0 l/m 2 min 0 min 1,9 UV-I 617 W/m 12,9 km/h (3 Bft)
06.08.2013 10:10 21,4 C 25,7 C 71 % 1015,9 hPa 0,0 l/m 2 min 0 min 2,0 UV-I 689 W/m 7,7 km/h (2 Bft)
06.08.2013 10:12 21,3 C 24,6 C 71 % 1015,9 hPa 0,0 l/m 0 min 0 min 1,8 UV-I 262 W/m 2,6 km/h (1 Bft)
06.08.2013 10:14 21,3 C 24,6 C 72 % 1015,9 hPa 0,0 l/m 0 min 0 min 1,3 UV-I 230 W/m 0,0 km/h (0 Bft)
06.08.2013 10:16 21,3 C 25,1 C 72 % 1015,9 hPa 0,0 l/m 0 min 0 min 1,8 UV-I 213 W/m 0,0 km/h (0 Bft)
06.08.2013 10:18 21,3 C 25,1 C 70 % 1015,9 hPa 0,0 l/m 0 min 0 min 1,2 UV-I 207 W/m 10,3 km/h (2 Bft)
06.08.2013 10:20 21,2 C 25,7 C 70 % 1015,9 hPa 0,0 l/m 2 min 0 min 2,2 UV-I 694 W/m 10,3 km/h (2 Bft)
06.08.2013 10:22 21,3 C 26,2 C 71 % 1015,9 hPa 0,0 l/m 2 min 0 min 2,2 UV-I 673 W/m 12,9 km/h (3 Bft)
06.08.2013 10:24 21,4 C 26,2 C 71 % 1015,9 hPa 0,0 l/m 2 min 0 min 2,3 UV-I 671 W/m 10,3 km/h (2 Bft)
06.08.2013 10:26 21,4 C 26,2 C 70 % 1015,9 hPa 0,0 l/m 2 min 0 min 2,3 UV-I 679 W/m 12,9 km/h (3 Bft)
06.08.2013 10:28 21,5 C 25,7 C 70 % 1015,9 hPa 0,0 l/m 2 min 0 min 1,7 UV-I 693 W/m 2,6 km/h (1 Bft)
06.08.2013 10:30 21,6 C 26,2 C 70 % 1015,9 hPa 0,0 l/m 2 min 0 min 2,3 UV-I 631 W/m 0,0 km/h (0 Bft)
06.08.2013 10:32 21,8 C 27,3 C 72 % 1015,9 hPa 0,0 l/m 2 min 0 min 2,3 UV-I 603 W/m 0,0 km/h (0 Bft)
06.08.2013 10:34 22,0 C 28,4 C 70 % 1015,9 hPa 0,0 l/m 2 min 0 min 2,4 UV-I 626 W/m 5,1 km/h (1 Bft)
06.08.2013 10:36 22,2 C 28,4 C 70 % 1015,9 hPa 0,0 l/m 2 min 0 min 2,5 UV-I 657 W/m 10,3 km/h (2 Bft)
06.08.2013 10:38 22,3 C 26,8 C 68 % 1015,9 hPa 0,0 l/m 2 min 0 min 1,4 UV-I 631 W/m 2,6 km/h (1 Bft)
06.08.2013 10:40 22,2 C 26,2 C 67 % 1015,9 hPa 0,0 l/m 2 min 0 min 2,6 UV-I 654 W/m 12,9 km/h (3 Bft)
06.08.2013 10:42 22,1 C 26,8 C 66 % 1016,0 hPa 0,0 l/m 2 min 0 min 2,6 UV-I 654 W/m 7,7 km/h (2 Bft)
06.08.2013 10:44 22,1 C 26,2 C 66 % 1016,0 hPa 0,0 l/m 2 min 0 min 1,4 UV-I 654 W/m 2,6 km/h (1 Bft)
06.08.2013 10:46 22,1 C 26,2 C 68 % 1016,0 hPa 0,0 l/m 2 min 0 min 2,7 UV-I 649 W/m 0,0 km/h (0 Bft)
06.08.2013 10:48 22,2 C 27,3 C 68 % 1016,0 hPa 0,0 l/m 2 min 0 min 2,8 UV-I 679 W/m 0,0 km/h (0 Bft)
06.08.2013 10:50 22,4 C 28,4 C 68 % 1016,0 hPa 0,0 l/m 2 min 0 min 2,8 UV-I 694 W/m 7,7 km/h (2 Bft)
06.08.2013 10:52 22,6 C 28,4 C 68 % 1016,0 hPa 0,0 l/m 2 min 0 min 2,7 UV-I 740 W/m 10,3 km/h (2 Bft)
06.08.2013 10:54 22,6 C 27,3 C 65 % 1016,0 hPa 0,0 l/m 2 min 0 min 2,8 UV-I 636 W/m 18,0 km/h (3 Bft)
06.08.2013 10:56 22,6 C 27,3 C 65 % 1016,0 hPa 0,0 l/m 2 min 0 min 2,9 UV-I 724 W/m 7,7 km/h (2 Bft)
06.08.2013 10:58 22,6 C 27,3 C 65 % 1016,0 hPa 0,0 l/m 2 min 0 min 2,9 UV-I 712 W/m 2,6 km/h (1 Bft)
06.08.2013 11:00 22,6 C 27,9 C 65 % 1015,9 hPa 0,0 l/m 2 min 0 min 3,1 UV-I 712 W/m 5,1 km/h (1 Bft)
06.08.2013 11:02 22,6 C 28,4 C 66 % 1016,0 hPa 0,0 l/m 2 min 0 min 3,0 UV-I 698 W/m 7,7 km/h (2 Bft)
06.08.2013 11:06 22,9 C 29,0 C 66 % 1015,9 hPa 0,0 l/m 2 min 0 min 3,2 UV-I 729 W/m 7,7 km/h (2 Bft)
06.08.2013 11:08 23,0 C 29,0 C 65 % 1015,9 hPa 0,0 l/m 2 min 0 min 3,2 UV-I 733 W/m 0,0 km/h (0 Bft)
06.08.2013 11:10 23,1 C 29,0 C 64 % 1015,8 hPa 0,0 l/m 2 min 0 min 3,3 UV-I 754 W/m 10,3 km/h (2 Bft)
06.08.2013 11:12 23,1 C 29,0 C 65 % 1015,8 hPa 0,0 l/m 2 min 0 min 3,3 UV-I 779 W/m 0,0 km/h (0 Bft)
06.08.2013 11:14 23,3 C 29,0 C 66 % 1015,8 hPa 0,0 l/m 2 min 0 min 3,3 UV-I 800 W/m 5,1 km/h (1 Bft)
06.08.2013 11:16 23,4 C 29,6 C 64 % 1015,8 hPa 0,0 l/m 2 min 0 min 3,3 UV-I 780 W/m 12,9 km/h (3 Bft)
06.08.2013 11:18 23,6 C 29,0 C 65 % 1015,7 hPa 0,0 l/m 2 min 0 min 3,4 UV-I 817 W/m 10,3 km/h (2 Bft)
06.08.2013 11:20 23,6 C 27,3 C 64 % 1015,8 hPa 0,0 l/m 2 min 0 min 1,8 UV-I 837 W/m 5,1 km/h (1 Bft)
06.08.2013 11:22 23,5 C 26,8 C 65 % 1015,9 hPa 0,0 l/m 2 min 0 min 1,9 UV-I 868 W/m 7,7 km/h (2 Bft)
06.08.2013 11:24 23,4 C 26,8 C 65 % 1015,9 hPa 0,0 l/m 2 min 0 min 3,4 UV-I 833 W/m 10,3 km/h (2 Bft)
06.08.2013 11:26 23,6 C 26,2 C 64 % 1015,9 hPa 0,0 l/m 2 min 0 min 3,4 UV-I 875 W/m 5,1 km/h (1 Bft)
06.08.2013 11:28 23,6 C 26,2 C 65 % 1015,9 hPa 0,0 l/m 2 min 0 min 3,4 UV-I 882 W/m 10,3 km/h (2 Bft)
06.08.2013 11:30 23,6 C 26,8 C 63 % 1015,9 hPa 0,0 l/m 2 min 0 min 3,3 UV-I 882 W/m 2,6 km/h (1 Bft)
06.08.2013 11:32 23,7 C 26,8 C 64 % 1015,9 hPa 0,0 l/m 2 min 0 min 2,0 UV-I 882 W/m 2,6 km/h (1 Bft)
06.08.2013 11:34 23,4 C 26,2 C 64 % 1015,9 hPa 0,0 l/m 0 min 0 min 1,6 UV-I 200 W/m 10,3 km/h (2 Bft)
06.08.2013 11:36 23,1 C 25,1 C 62 % 1015,9 hPa 0,0 l/m 0 min 0 min 3,6 UV-I 200 W/m 15,4 km/h (3 Bft)
06.08.2013 11:38 22,9 C 26,2 C 64 % 1016,0 hPa 0,0 l/m 2 min 0 min 3,8 UV-I 823 W/m 12,9 km/h (3 Bft)
06.08.2013 11:40 23,1 C 27,9 C 65 % 1016,0 hPa 0,0 l/m 2 min 0 min 3,9 UV-I 877 W/m 7,7 km/h (2 Bft)
06.08.2013 11:42 23,2 C 29,6 C 64 % 1015,9 hPa 0,0 l/m 2 min 0 min 3,9 UV-I 875 W/m 7,7 km/h (2 Bft)
06.08.2013 11:44 23,4 C 29,6 C 63 % 1015,8 hPa 0,0 l/m 2 min 0 min 3,9 UV-I 875 W/m 28,3 km/h (4 Bft)
06.08.2013 11:46 23,7 C 29,0 C 61 % 1015,9 hPa 0,0 l/m 2 min 0 min 4,0 UV-I 802 W/m 7,7 km/h (2 Bft)
06.08.2013 11:48 23,7 C 29,0 C 63 % 1015,9 hPa 0,0 l/m 2 min 0 min 4,0 UV-I 744 W/m 12,9 km/h (3 Bft)
06.08.2013 11:50 24,0 C 29,0 C 62 % 1015,9 hPa 0,0 l/m 2 min 0 min 4,0 UV-I 766 W/m 12,9 km/h (3 Bft)
06.08.2013 11:52 23,8 C 29,6 C 63 % 1015,8 hPa 0,0 l/m 2 min 0 min 4,1 UV-I 793 W/m 15,4 km/h (3 Bft)
06.08.2013 11:54 23,7 C 29,6 C 62 % 1015,8 hPa 0,0 l/m 2 min 0 min 3,8 UV-I 719 W/m 7,7 km/h (2 Bft)
06.08.2013 11:56 23,7 C 30,1 C 63 % 1015,8 hPa 0,0 l/m 2 min 0 min 4,0 UV-I 779 W/m 5,1 km/h (1 Bft)
06.08.2013 11:58 23,9 C 29,6 C 61 % 1015,9 hPa 0,0 l/m 2 min 0 min 4,1 UV-I 772 W/m 12,9 km/h (3 Bft)
06.08.2013 12:00 23,9 C 30,1 C 60 % 1015,9 hPa 0,0 l/m 2 min 0 min 4,1 UV-I 784 W/m 2,6 km/h (1 Bft)
06.08.2013 12:02 23,9 C 30,7 C 62 % 1015,9 hPa 0,0 l/m 2 min 0 min 4,1 UV-I 761 W/m 7,7 km/h (2 Bft)
06.08.2013 12:06 23,9 C 29,6 C 59 % 1015,9 hPa 0,0 l/m 2 min 0 min 4,0 UV-I 744 W/m 15,4 km/h (3 Bft)
06.08.2013 12:08 23,7 C 29,0 C 61 % 1015,8 hPa 0,0 l/m 2 min 0 min 4,3 UV-I 831 W/m 15,4 km/h (3 Bft)
06.08.2013 12:10 23,8 C 29,6 C 60 % 1015,8 hPa 0,0 l/m 2 min 0 min 4,2 UV-I 802 W/m 5,1 km/h (1 Bft)
06.08.2013 12:12 23,8 C 29,6 C 62 % 1015,8 hPa 0,0 l/m 2 min 0 min 4,2 UV-I 768 W/m 7,7 km/h (2 Bft)
06.08.2013 12:14 24,0 C 29,6 C 61 % 1015,7 hPa 0,0 l/m 2 min 0 min 4,3 UV-I 800 W/m 12,9 km/h (3 Bft)
06.08.2013 12:16 24,1 C 30,1 C 61 % 1015,7 hPa 0,0 l/m 2 min 0 min 4,3 UV-I 789 W/m 7,7 km/h (2 Bft)
06.08.2013 12:18 24,2 C 30,1 C 60 % 1015,8 hPa 0,0 l/m 2 min 0 min 3,8 UV-I 698 W/m 7,7 km/h (2 Bft)
06.08.2013 12:20 24,2 C 30,1 C 59 % 1015,8 hPa 0,0 l/m 2 min 0 min 4,4 UV-I 770 W/m 7,7 km/h (2 Bft)
06.08.2013 12:22 24,3 C 30,7 C 60 % 1015,8 hPa 0,0 l/m 2 min 0 min 4,2 UV-I 816 W/m 2,6 km/h (1 Bft)
06.08.2013 12:24 24,3 C 29,6 C 58 % 1015,7 hPa 0,0 l/m 2 min 0 min 4,3 UV-I 809 W/m 12,9 km/h (3 Bft)
06.08.2013 12:26 24,3 C 29,6 C 60 % 1015,7 hPa 0,0 l/m 2 min 0 min 4,5 UV-I 884 W/m 10,3 km/h (2 Bft)
06.08.2013 12:28 24,6 C 30,1 C 59 % 1015,7 hPa 0,0 l/m 2 min 0 min 4,6 UV-I 896 W/m 7,7 km/h (2 Bft)
06.08.2013 12:30 24,7 C 30,1 C 58 % 1015,7 hPa 0,0 l/m 2 min 0 min 4,5 UV-I 870 W/m 7,7 km/h (2 Bft)
06.08.2013 12:32 24,8 C 30,1 C 60 % 1015,7 hPa 0,0 l/m 2 min 0 min 4,5 UV-I 870 W/m 15,4 km/h (3 Bft)
06.08.2013 12:34 24,6 C 29,6 C 57 % 1015,7 hPa 0,0 l/m 2 min 0 min 2,9 UV-I 870 W/m 15,4 km/h (3 Bft)
06.08.2013 12:36 24,3 C 28,4 C 59 % 1015,7 hPa 0,0 l/m 2 min 0 min 4,4 UV-I 891 W/m 10,3 km/h (2 Bft)
06.08.2013 12:38 24,2 C 27,9 C 61 % 1015,8 hPa 0,0 l/m 2 min 0 min 3,0 UV-I 796 W/m 7,7 km/h (2 Bft)
06.08.2013 12:40 24,3 C 28,4 C 60 % 1015,7 hPa 0,0 l/m 2 min 0 min 4,7 UV-I 935 W/m 12,9 km/h (3 Bft)
06.08.2013 12:42 24,4 C 28,4 C 60 % 1015,7 hPa 0,0 l/m 2 min 0 min 3,4 UV-I 735 W/m 5,1 km/h (1 Bft)
06.08.2013 12:44 24,4 C 28,4 C 59 % 1015,7 hPa 0,0 l/m 2 min 0 min 4,2 UV-I 735 W/m 5,1 km/h (1 Bft)
06.08.2013 12:46 24,4 C 27,9 C 59 % 1015,7 hPa 0,0 l/m 2 min 0 min 3,0 UV-I 735 W/m 5,1 km/h (1 Bft)
06.08.2013 12:48 24,4 C 27,9 C 61 % 1015,7 hPa 0,0 l/m 0 min 0 min 2,9 UV-I 429 W/m 2,6 km/h (1 Bft)
06.08.2013 12:50 24,3 C 27,9 C 59 % 1015,6 hPa 0,0 l/m 2 min 0 min 2,4 UV-I 942 W/m 7,7 km/h (2 Bft)
06.08.2013 12:52 24,2 C 26,8 C 60 % 1015,7 hPa 0,0 l/m 0 min 0 min 2,3 UV-I 299 W/m 10,3 km/h (2 Bft)
06.08.2013 12:54 24,0 C 26,2 C 60 % 1015,6 hPa 0,0 l/m 0 min 0 min 2,4 UV-I 325 W/m 7,7 km/h (2 Bft)
06.08.2013 12:56 23,7 C 25,7 C 60 % 1015,7 hPa 0,0 l/m 0 min 0 min 2,4 UV-I 341 W/m 10,3 km/h (2 Bft)
06.08.2013 12:58 23,8 C 26,2 C 60 % 1015,8 hPa 0,0 l/m 0 min 0 min 3,0 UV-I 341 W/m 12,9 km/h (3 Bft)
06.08.2013 13:00 23,8 C 25,7 C 59 % 1015,9 hPa 0,0 l/m 0 min 0 min 2,2 UV-I 285 W/m 12,9 km/h (3 Bft)
06.08.2013 13:02 23,7 C 25,1 C 60 % 1015,8 hPa 0,0 l/m 0 min 0 min 2,3 UV-I 279 W/m 10,3 km/h (2 Bft)
06.08.2013 13:06 24,1 C 26,2 C 60 % 1015,8 hPa 0,0 l/m 2 min 0 min 2,9 UV-I 805 W/m 10,3 km/h (2 Bft)
06.08.2013 13:08 24,1 C 25,7 C 59 % 1015,9 hPa 0,0 l/m 0 min 0 min 2,8 UV-I 350 W/m 15,4 km/h (3 Bft)
06.08.2013 13:10 24,1 C 26,2 C 60 % 1015,9 hPa 0,0 l/m 2 min 0 min 2,6 UV-I 940 W/m 7,7 km/h (2 Bft)
06.08.2013 13:12 24,1 C 26,2 C 60 % 1015,9 hPa 0,0 l/m 2 min 0 min 2,6 UV-I 940 W/m 7,7 km/h (2 Bft)
06.08.2013 13:14 24,0 C 25,7 C 59 % 1015,9 hPa 0,0 l/m 0 min 0 min 2,7 UV-I 295 W/m 12,9 km/h (3 Bft)
06.08.2013 13:16 23,9 C 25,7 C 59 % 1015,9 hPa 0,0 l/m 0 min 0 min 2,5 UV-I 295 W/m 10,3 km/h (2 Bft)
06.08.2013 13:18 23,8 C 25,7 C 61 % 1015,9 hPa 0,0 l/m 2 min 0 min 2,4 UV-I 747 W/m 7,7 km/h (2 Bft)
06.08.2013 13:20 23,8 C 25,1 C 59 % 1015,9 hPa 0,0 l/m 0 min 0 min 2,4 UV-I 272 W/m 7,7 km/h (2 Bft)
06.08.2013 13:22 23,6 C 25,1 C 59 % 1015,9 hPa 0,0 l/m 0 min 0 min 2,5 UV-I 301 W/m 12,9 km/h (3 Bft)
06.08.2013 13:24 23,6 C 25,1 C 60 % 1015,8 hPa 0,0 l/m 0 min 0 min 2,7 UV-I 313 W/m 7,7 km/h (2 Bft)
06.08.2013 13:26 23,7 C 25,1 C 61 % 1015,8 hPa 0,0 l/m 2 min 0 min 2,5 UV-I 773 W/m 7,7 km/h (2 Bft)
06.08.2013 13:28 23,9 C 25,1 C 59 % 1015,8 hPa 0,0 l/m 0 min 0 min 2,4 UV-I 237 W/m 10,3 km/h (2 Bft)
06.08.2013 13:30 23,8 C 25,1 C 61 % 1015,8 hPa 0,0 l/m 0 min 0 min 2,2 UV-I 220 W/m 2,6 km/h (1 Bft)
06.08.2013 13:32 23,6 C 24,6 C 59 % 1015,8 hPa 0,0 l/m 0 min 0 min 2,4 UV-I 260 W/m 5,1 km/h (1 Bft)
06.08.2013 13:34 23,4 C 24,6 C 62 % 1015,8 hPa 0,0 l/m 0 min 0 min 2,6 UV-I 260 W/m 7,7 km/h (2 Bft)
06.08.2013 13:36 23,8 C 25,1 C 62 % 1015,8 hPa 0,0 l/m 2 min 0 min 2,5 UV-I 849 W/m 5,1 km/h (1 Bft)
06.08.2013 13:38 24,4 C 25,7 C 60 % 1015,8 hPa 0,0 l/m 2 min 0 min 2,3 UV-I 849 W/m 2,6 km/h (1 Bft)
06.08.2013 13:40 24,6 C 25,7 C 59 % 1015,8 hPa 0,0 l/m 0 min 0 min 2,1 UV-I 220 W/m 2,6 km/h (1 Bft)
06.08.2013 13:42 24,2 C 25,1 C 57 % 1015,8 hPa 0,0 l/m 0 min 0 min 1,9 UV-I 236 W/m 5,1 km/h (1 Bft)
06.08.2013 13:44 23,9 C 24,6 C 59 % 1015,7 hPa 0,0 l/m 0 min 0 min 2,1 UV-I 236 W/m 15,4 km/h (3 Bft)
06.08.2013 13:46 23,7 C 24,6 C 59 % 1015,7 hPa 0,0 l/m 0 min 0 min 2,4 UV-I 271 W/m 7,7 km/h (2 Bft)
06.08.2013 13:48 23,7 C 24,6 C 59 % 1015,7 hPa 0,0 l/m 0 min 0 min 2,7 UV-I 271 W/m 7,7 km/h (2 Bft)
06.08.2013 13:50 23,8 C 25,1 C 61 % 1015,8 hPa 0,0 l/m 0 min 0 min 3,2 UV-I 309 W/m 2,6 km/h (1 Bft)
06.08.2013 13:52 24,1 C 25,1 C 59 % 1015,8 hPa 0,0 l/m 2 min 0 min 2,7 UV-I 817 W/m 7,7 km/h (2 Bft)
06.08.2013 13:54 24,2 C 25,7 C 59 % 1015,8 hPa 0,0 l/m 0 min 0 min 2,6 UV-I 322 W/m 0,0 km/h (0 Bft)
06.08.2013 13:56 24,2 C 25,7 C 60 % 1015,7 hPa 0,0 l/m 0 min 0 min 3,8 UV-I 336 W/m 0,0 km/h (0 Bft)
06.08.2013 13:58 24,3 C 25,7 C 59 % 1015,7 hPa 0,0 l/m 0 min 0 min 2,5 UV-I 330 W/m 10,3 km/h (2 Bft)
06.08.2013 14:00 24,2 C 25,1 C 60 % 1015,7 hPa 0,0 l/m 0 min 0 min 1,7 UV-I 244 W/m 10,3 km/h (2 Bft)
06.08.2013 14:02 24,1 C 24,6 C 60 % 1015,7 hPa 0,0 l/m 0 min 0 min 1,9 UV-I 285 W/m 7,7 km/h (2 Bft)
06.08.2013 14:06 23,9 C 24,6 C 61 % 1015,8 hPa 0,0 l/m 0 min 0 min 2,9 UV-I 425 W/m 5,1 km/h (1 Bft)
06.08.2013 14:08 23,8 C 25,1 C 59 % 1015,7 hPa 0,0 l/m 2 min 0 min 3,1 UV-I 462 W/m 10,3 km/h (2 Bft)
06.08.2013 14:10 23,8 C 25,1 C 61 % 1015,7 hPa 0,0 l/m 0 min 0 min 2,6 UV-I 385 W/m 7,7 km/h (2 Bft)
06.08.2013 14:12 23,9 C 25,7 C 61 % 1015,8 hPa 0,0 l/m 0 min 0 min 3,3 UV-I 424 W/m 2,6 km/h (1 Bft)
06.08.2013 14:14 24,2 C 26,2 C 60 % 1015,8 hPa 0,0 l/m 2 min 0 min 3,4 UV-I 619 W/m 10,3 km/h (2 Bft)
06.08.2013 14:16 24,3 C 26,2 C 59 % 1015,8 hPa 0,0 l/m 2 min 0 min 3,2 UV-I 589 W/m 2,6 km/h (1 Bft)
06.08.2013 14:18 24,3 C 26,2 C 59 % 1015,8 hPa 0,0 l/m 2 min 0 min 2,9 UV-I 469 W/m 2,6 km/h (1 Bft)
06.08.2013 14:20 24,4 C 26,2 C 58 % 1015,7 hPa 0,0 l/m 2 min 0 min 2,9 UV-I 506 W/m 7,7 km/h (2 Bft)
06.08.2013 14:22 24,6 C 26,2 C 58 % 1015,6 hPa 0,0 l/m 0 min 0 min 2,8 UV-I 415 W/m 0,0 km/h (0 Bft)
06.08.2013 14:24 24,7 C 26,8 C 59 % 1015,6 hPa 0,0 l/m 0 min 0 min 2,8 UV-I 427 W/m 2,6 km/h (1 Bft)
06.08.2013 14:26 24,6 C 26,8 C 60 % 1015,7 hPa 0,0 l/m 2 min 0 min 3,5 UV-I 626 W/m 10,3 km/h (2 Bft)
06.08.2013 14:28 24,8 C 26,8 C 56 % 1015,6 hPa 0,0 l/m 2 min 0 min 3,3 UV-I 587 W/m 10,3 km/h (2 Bft)
06.08.2013 14:30 24,7 C 26,8 C 57 % 1015,6 hPa 0,0 l/m 2 min 0 min 3,2 UV-I 568 W/m 2,6 km/h (1 Bft)
06.08.2013 14:32 24,6 C 26,2 C 55 % 1015,6 hPa 0,0 l/m 2 min 0 min 3,0 UV-I 508 W/m 10,3 km/h (2 Bft)
06.08.2013 14:34 24,5 C 26,2 C 57 % 1015,6 hPa 0,0 l/m 2 min 0 min 2,9 UV-I 473 W/m 0,0 km/h (0 Bft)
06.08.2013 14:36 24,5 C 26,2 C 60 % 1015,6 hPa 0,0 l/m 2 min 0 min 3,2 UV-I 483 W/m 10,3 km/h (2 Bft)
06.08.2013 14:38 24,7 C 26,2 C 57 % 1015,6 hPa 0,0 l/m 2 min 0 min 3,3 UV-I 591 W/m 12,9 km/h (3 Bft)
06.08.2013 14:40 24,7 C 26,2 C 59 % 1015,6 hPa 0,0 l/m 2 min 0 min 3,1 UV-I 547 W/m 2,6 km/h (1 Bft)
06.08.2013 14:42 24,8 C 26,2 C 58 % 1015,6 hPa 0,0 l/m 0 min 0 min 3,1 UV-I 411 W/m 12,9 km/h (3 Bft)
06.08.2013 14:44 24,8 C 26,2 C 58 % 1015,6 hPa 0,0 l/m 2 min 0 min 3,0 UV-I 529 W/m 7,7 km/h (2 Bft)
06.08.2013 14:46 24,7 C 25,7 C 57 % 1015,6 hPa 0,0 l/m 0 min 0 min 2,5 UV-I 381 W/m 7,7 km/h (2 Bft)
06.08.2013 14:48 24,4 C 25,7 C 57 % 1015,5 hPa 0,0 l/m 0 min 0 min 2,4 UV-I 385 W/m 5,1 km/h (1 Bft)
06.08.2013 14:50 24,3 C 25,7 C 60 % 1015,5 hPa 0,0 l/m 0 min 0 min 2,4 UV-I 381 W/m 2,6 km/h (1 Bft)
06.08.2013 14:52 24,3 C 25,7 C 59 % 1015,4 hPa 0,0 l/m 2 min 0 min 2,8 UV-I 512 W/m 2,6 km/h (1 Bft)
06.08.2013 14:54 24,3 C 25,7 C 57 % 1015,4 hPa 0,0 l/m 2 min 0 min 2,9 UV-I 520 W/m 7,7 km/h (2 Bft)
06.08.2013 14:56 24,4 C 26,2 C 59 % 1015,4 hPa 0,0 l/m 2 min 0 min 3,0 UV-I 519 W/m 5,1 km/h (1 Bft)
06.08.2013 14:58 24,5 C 26,2 C 58 % 1015,4 hPa 0,0 l/m 2 min 0 min 3,2 UV-I 536 W/m 7,7 km/h (2 Bft)
06.08.2013 15:00 24,7 C 26,2 C 58 % 1015,4 hPa 0,0 l/m 2 min 0 min 3,1 UV-I 564 W/m 2,6 km/h (1 Bft)
06.08.2013 15:02 24,8 C 26,2 C 59 % 1015,4 hPa 0,0 l/m 2 min 0 min 2,9 UV-I 508 W/m 2,6 km/h (1 Bft)
06.08.2013 15:06 24,7 C 26,2 C 56 % 1015,4 hPa 0,0 l/m 2 min 0 min 3,0 UV-I 531 W/m 12,9 km/h (3 Bft)
06.08.2013 15:08 24,8 C 26,2 C 58 % 1015,4 hPa 0,0 l/m 2 min 0 min 2,8 UV-I 492 W/m 2,6 km/h (1 Bft)
06.08.2013 15:10 24,8 C 26,2 C 56 % 1015,4 hPa 0,0 l/m 2 min 0 min 2,9 UV-I 527 W/m 7,7 km/h (2 Bft)
06.08.2013 15:12 24,7 C 26,2 C 57 % 1015,4 hPa 0,0 l/m 2 min 0 min 3,0 UV-I 622 W/m 5,1 km/h (1 Bft)
06.08.2013 15:14 24,9 C 26,2 C 58 % 1015,4 hPa 0,0 l/m 2 min 0 min 3,1 UV-I 566 W/m 2,6 km/h (1 Bft)
06.08.2013 15:16 24,9 C 26,2 C 56 % 1015,4 hPa 0,0 l/m 0 min 0 min 2,6 UV-I 352 W/m 10,3 km/h (2 Bft)
06.08.2013 15:18 24,7 C 26,2 C 57 % 1015,3 hPa 0,0 l/m 0 min 0 min 2,2 UV-I 334 W/m 0,0 km/h (0 Bft)
06.08.2013 15:20 24,6 C 25,7 C 56 % 1015,4 hPa 0,0 l/m 0 min 0 min 2,2 UV-I 325 W/m 5,1 km/h (1 Bft)
06.08.2013 15:22 24,5 C 25,7 C 57 % 1015,4 hPa 0,0 l/m 2 min 0 min 2,8 UV-I 471 W/m 7,7 km/h (2 Bft)
06.08.2013 15:24 24,3 C 25,7 C 56 % 1015,4 hPa 0,0 l/m 2 min 0 min 2,6 UV-I 473 W/m 10,3 km/h (2 Bft)
06.08.2013 15:26 24,4 C 25,7 C 58 % 1015,4 hPa 0,0 l/m 2 min 0 min 2,5 UV-I 438 W/m 0,0 km/h (0 Bft)
06.08.2013 15:28 24,6 C 26,2 C 57 % 1015,4 hPa 0,0 l/m 2 min 0 min 3,1 UV-I 606 W/m 12,9 km/h (3 Bft)
06.08.2013 15:30 24,8 C 26,2 C 57 % 1015,4 hPa 0,0 l/m 2 min 0 min 3,1 UV-I 617 W/m 10,3 km/h (2 Bft)
06.08.2013 15:32 25,1 C 26,8 C 56 % 1015,3 hPa 0,0 l/m 2 min 0 min 2,8 UV-I 545 W/m 7,7 km/h (2 Bft)
06.08.2013 15:34 25,2 C 26,2 C 56 % 1015,4 hPa 0,0 l/m 2 min 0 min 1,9 UV-I 438 W/m 0,0 km/h (0 Bft)
06.08.2013 15:36 25,2 C 26,2 C 57 % 1015,5 hPa 0,0 l/m 0 min 0 min 1,7 UV-I 269 W/m 5,1 km/h (1 Bft)
06.08.2013 15:38 24,8 C 25,7 C 55 % 1015,5 hPa 0,0 l/m 0 min 0 min 1,6 UV-I 269 W/m 2,6 km/h (1 Bft)
06.08.2013 15:40 24,4 C 25,1 C 57 % 1015,4 hPa 0,0 l/m 0 min 0 min 1,6 UV-I 281 W/m 10,3 km/h (2 Bft)
06.08.2013 15:42 24,3 C 25,1 C 58 % 1015,4 hPa 0,0 l/m 0 min 0 min 1,6 UV-I 288 W/m 7,7 km/h (2 Bft)
06.08.2013 15:44 24,3 C 25,1 C 58 % 1015,4 hPa 0,0 l/m 0 min 0 min 1,6 UV-I 288 W/m 2,6 km/h (1 Bft)
06.08.2013 15:46 24,3 C 25,1 C 59 % 1015,4 hPa 0,0 l/m 0 min 0 min 1,6 UV-I 329 W/m 5,1 km/h (1 Bft)
06.08.2013 15:48 24,3 C 25,1 C 58 % 1015,4 hPa 0,0 l/m 0 min 0 min 1,7 UV-I 353 W/m 10,3 km/h (2 Bft)
06.08.2013 15:50 24,3 C 25,1 C 59 % 1015,5 hPa 0,0 l/m 0 min 0 min 1,7 UV-I 374 W/m 2,6 km/h (1 Bft)
06.08.2013 15:52 24,4 C 25,7 C 61 % 1015,5 hPa 0,0 l/m 0 min 0 min 1,6 UV-I 327 W/m 0,0 km/h (0 Bft)
06.08.2013 15:54 24,5 C 25,1 C 60 % 1015,5 hPa 0,0 l/m 0 min 0 min 1,4 UV-I 272 W/m 12,9 km/h (3 Bft)
06.08.2013 15:56 24,4 C 25,1 C 60 % 1015,5 hPa 0,0 l/m 0 min 0 min 1,3 UV-I 253 W/m 7,7 km/h (2 Bft)
06.08.2013 15:58 24,4 C 25,1 C 60 % 1015,6 hPa 0,0 l/m 0 min 0 min 1,1 UV-I 232 W/m 0,0 km/h (0 Bft)
06.08.2013 16:00 24,2 C 24,6 C 59 % 1015,7 hPa 0,0 l/m 0 min 0 min 1,1 UV-I 223 W/m 5,1 km/h (1 Bft)
06.08.2013 16:02 24,1 C 24,6 C 61 % 1015,7 hPa 0,0 l/m 0 min 0 min 1,1 UV-I 237 W/m 2,6 km/h (1 Bft)
06.08.2013 16:06 23,9 C 24,6 C 59 % 1015,6 hPa 0,0 l/m 0 min 0 min 1,1 UV-I 232 W/m 2,6 km/h (1 Bft)
06.08.2013 16:08 23,9 C 24,6 C 61 % 1015,6 hPa 0,0 l/m 0 min 0 min 0,9 UV-I 204 W/m 2,6 km/h (1 Bft)
06.08.2013 16:10 23,9 C 24,0 C 61 % 1015,7 hPa 0,0 l/m 0 min 0 min 0,8 UV-I 197 W/m 2,6 km/h (1 Bft)
06.08.2013 16:12 23,8 C 24,0 C 61 % 1015,6 hPa 0,0 l/m 0 min 0 min 0,8 UV-I 195 W/m 0,0 km/h (0 Bft)
06.08.2013 16:14 23,8 C 24,0 C 61 % 1015,6 hPa 0,0 l/m 0 min 0 min 0,7 UV-I 178 W/m 2,6 km/h (1 Bft)
06.08.2013 16:16 23,8 C 24,0 C 62 % 1015,6 hPa 0,0 l/m 0 min 0 min 0,6 UV-I 167 W/m 0,0 km/h (0 Bft)
06.08.2013 16:18 23,7 C 24,0 C 61 % 1015,7 hPa 0,0 l/m 0 min 0 min 0,6 UV-I 160 W/m 10,3 km/h (2 Bft)
06.08.2013 16:20 23,7 C 24,0 C 61 % 1015,6 hPa 0,0 l/m 0 min 0 min 0,6 UV-I 169 W/m 0,0 km/h (0 Bft)
06.08.2013 16:22 23,6 C 23,4 C 60 % 1015,6 hPa 0,0 l/m 0 min 0 min 0,7 UV-I 183 W/m 2,6 km/h (1 Bft)
06.08.2013 16:24 23,6 C 23,4 C 62 % 1015,6 hPa 0,0 l/m 0 min 0 min 0,7 UV-I 185 W/m 0,0 km/h (0 Bft)
06.08.2013 16:26 23,6 C 23,4 C 62 % 1015,6 hPa 0,0 l/m 0 min 0 min 0,6 UV-I 174 W/m 2,6 km/h (1 Bft)
06.08.2013 16:28 23,5 C 23,4 C 61 % 1015,5 hPa 0,0 l/m 0 min 0 min 0,5 UV-I 167 W/m 2,6 km/h (1 Bft)
06.08.2013 16:30 23,6 C 23,4 C 62 % 1015,5 hPa 0,0 l/m 0 min 0 min 0,5 UV-I 163 W/m 0,0 km/h (0 Bft)
06.08.2013 16:32 23,6 C 23,4 C 62 % 1015,5 hPa 0,0 l/m 0 min 0 min 0,5 UV-I 162 W/m 0,0 km/h (0 Bft)
06.08.2013 16:34 23,5 C 23,4 C 62 % 1015,5 hPa 0,0 l/m 0 min 0 min 0,5 UV-I 155 W/m 0,0 km/h (0 Bft)
06.08.2013 16:36 23,4 C 23,4 C 62 % 1015,5 hPa 0,0 l/m 0 min 0 min 0,0 UV-I 144 W/m 2,6 km/h (1 Bft)
06.08.2013 16:38 23,4 C 23,4 C 61 % 1015,4 hPa 0,0 l/m 0 min 0 min 0,0 UV-I 134 W/m 2,6 km/h (1 Bft)
06.08.2013 16:40 23,3 C 22,9 C 62 % 1015,4 hPa 0,0 l/m 0 min 0 min 0,0 UV-I 132 W/m 0,0 km/h (0 Bft)
06.08.2013 16:42 23,3 C 22,9 C 62 % 1015,4 hPa 0,0 l/m 0 min 0 min 0,0 UV-I 130 W/m 0,0 km/h (0 Bft)
06.08.2013 16:44 23,3 C 22,9 C 62 % 1015,3 hPa 0,0 l/m 0 min 0 min 0,0 UV-I 132 W/m 0,0 km/h (0 Bft)
06.08.2013 16:46 23,3 C 22,9 C 63 % 1015,3 hPa 0,0 l/m 0 min 0 min 0,0 UV-I 132 W/m 0,0 km/h (0 Bft)
06.08.2013 16:48 23,3 C 22,9 C 64 % 1015,3 hPa 0,0 l/m 0 min 0 min 0,0 UV-I 132 W/m 0,0 km/h (0 Bft)
06.08.2013 16:50 23,3 C 22,9 C 63 % 1015,3 hPa 0,0 l/m 0 min 0 min 0,0 UV-I 132 W/m 10,3 km/h (2 Bft)
06.08.2013 16:52 23,2 C 22,9 C 64 % 1015,2 hPa 0,0 l/m 0 min 0 min 0,0 UV-I 130 W/m 2,6 km/h (1 Bft)
06.08.2013 16:54 23,2 C 22,9 C 64 % 1015,2 hPa 0,0 l/m 0 min 0 min 0,0 UV-I 130 W/m 2,6 km/h (1 Bft)
06.08.2013 16:56 23,2 C 22,9 C 63 % 1015,2 hPa 0,0 l/m 0 min 0 min 0,0 UV-I 132 W/m 2,6 km/h (1 Bft)
06.08.2013 16:58 23,2 C 22,9 C 63 % 1015,1 hPa 0,0 l/m 0 min 0 min 0,0 UV-I 134 W/m 2,6 km/h (1 Bft)
06.08.2013 17:00 23,1 C 22,9 C 63 % 1015,0 hPa 0,0 l/m 0 min 0 min 0,0 UV-I 135 W/m 0,0 km/h (0 Bft)
06.08.2013 17:02 23,1 C 22,9 C 64 % 1015,0 hPa 0,0 l/m 0 min 0 min 0,0 UV-I 142 W/m 2,6 km/h (1 Bft)
06.08.2013 17:06 23,0 C 22,9 C 63 % 1014,8 hPa 0,0 l/m 0 min 0 min 0,0 UV-I 167 W/m 2,6 km/h (1 Bft)
06.08.2013 17:08 22,9 C 22,9 C 64 % 1014,7 hPa 0,0 l/m 0 min 0 min 0,5 UV-I 192 W/m 10,3 km/h (2 Bft)
06.08.2013 17:10 22,9 C 22,9 C 64 % 1014,7 hPa 0,0 l/m 0 min 0 min 0,5 UV-I 207 W/m 7,7 km/h (2 Bft)
06.08.2013 17:12 23,0 C 22,9 C 65 % 1014,6 hPa 0,0 l/m 0 min 0 min 0,6 UV-I 216 W/m 2,6 km/h (1 Bft)
06.08.2013 17:14 23,1 C 23,4 C 65 % 1014,6 hPa 0,0 l/m 0 min 0 min 0,6 UV-I 220 W/m 7,7 km/h (2 Bft)
06.08.2013 17:16 23,1 C 23,4 C 64 % 1014,5 hPa 0,0 l/m 0 min 0 min 0,6 UV-I 218 W/m 10,3 km/h (2 Bft)
06.08.2013 17:18 23,1 C 22,9 C 64 % 1014,5 hPa 0,0 l/m 0 min 0 min 0,6 UV-I 223 W/m 12,9 km/h (3 Bft)
06.08.2013 17:20 23,1 C 22,9 C 64 % 1014,5 hPa 0,0 l/m 0 min 0 min 0,7 UV-I 244 W/m 10,3 km/h (2 Bft)
06.08.2013 17:22 23,1 C 22,9 C 64 % 1014,5 hPa 0,0 l/m 0 min 0 min 0,7 UV-I 250 W/m 15,4 km/h (3 Bft)
06.08.2013 17:24 23,1 C 22,9 C 65 % 1014,5 hPa 0,0 l/m 0 min 0 min 0,7 UV-I 274 W/m 12,9 km/h (3 Bft)
06.08.2013 17:26 23,0 C 22,9 C 65 % 1014,5 hPa 0,0 l/m 0 min 0 min 0,8 UV-I 285 W/m 18,0 km/h (3 Bft)
06.08.2013 17:28 22,9 C 22,9 C 66 % 1014,5 hPa 0,0 l/m 0 min 0 min 0,8 UV-I 278 W/m 12,9 km/h (3 Bft)
06.08.2013 17:30 23,0 C 22,9 C 67 % 1014,6 hPa 0,0 l/m 0 min 0 min 0,8 UV-I 285 W/m 10,3 km/h (2 Bft)
06.08.2013 17:32 22,9 C 22,9 C 67 % 1014,6 hPa 0,0 l/m 2 min 0 min 0,9 UV-I 325 W/m 15,4 km/h (3 Bft)
06.08.2013 17:34 22,9 C 22,9 C 67 % 1014,7 hPa 0,0 l/m 2 min 0 min 1,0 UV-I 383 W/m 18,0 km/h (3 Bft)
06.08.2013 17:36 22,9 C 22,9 C 67 % 1014,7 hPa 0,0 l/m 2 min 0 min 1,0 UV-I 397 W/m 12,9 km/h (3 Bft)
06.08.2013 17:38 22,9 C 23,4 C 67 % 1014,7 hPa 0,0 l/m 2 min 0 min 1,4 UV-I 568 W/m 10,3 km/h (2 Bft)
06.08.2013 17:40 23,1 C 23,4 C 68 % 1014,7 hPa 0,0 l/m 2 min 0 min 1,2 UV-I 454 W/m 12,9 km/h (3 Bft)
06.08.2013 17:42 23,1 C 22,9 C 66 % 1014,7 hPa 0,0 l/m 2 min 0 min 1,2 UV-I 396 W/m 20,6 km/h (4 Bft)
06.08.2013 17:44 23,1 C 22,9 C 66 % 1014,6 hPa 0,0 l/m 2 min 0 min 1,1 UV-I 422 W/m 12,9 km/h (3 Bft)
06.08.2013 17:46 23,2 C 22,9 C 67 % 1014,6 hPa 0,0 l/m 2 min 0 min 0,9 UV-I 308 W/m 15,4 km/h (3 Bft)
06.08.2013 17:48 23,2 C 22,9 C 66 % 1014,7 hPa 0,0 l/m 2 min 0 min 1,0 UV-I 283 W/m 12,9 km/h (3 Bft)
06.08.2013 17:50 23,1 C 22,9 C 66 % 1014,6 hPa 0,0 l/m 0 min 0 min 0,7 UV-I 202 W/m 18,0 km/h (3 Bft)
06.08.2013 17:52 23,0 C 22,9 C 67 % 1014,7 hPa 0,0 l/m 0 min 0 min 0,7 UV-I 227 W/m 12,9 km/h (3 Bft)
06.08.2013 17:54 22,9 C 22,3 C 66 % 1014,7 hPa 0,0 l/m 2 min 0 min 0,9 UV-I 396 W/m 15,4 km/h (3 Bft)
06.08.2013 17:56 22,8 C 22,3 C 66 % 1014,8 hPa 0,0 l/m 2 min 0 min 0,9 UV-I 387 W/m 12,9 km/h (3 Bft)
06.08.2013 17:58 22,8 C 22,3 C 67 % 1014,7 hPa 0,0 l/m 2 min 0 min 0,7 UV-I 357 W/m 18,0 km/h (3 Bft)
06.08.2013 18:00 22,8 C 22,9 C 67 % 1014,8 hPa 0,0 l/m 2 min 0 min 0,9 UV-I 448 W/m 15,4 km/h (3 Bft)
06.08.2013 18:02 22,8 C 22,9 C 67 % 1014,7 hPa 0,0 l/m 2 min 0 min 1,0 UV-I 392 W/m 10,3 km/h (2 Bft)
06.08.2013 18:06 23,1 C 23,4 C 66 % 1014,6 hPa 0,0 l/m 2 min 0 min 0,8 UV-I 355 W/m 10,3 km/h (2 Bft)
06.08.2013 18:08 23,2 C 23,4 C 66 % 1014,7 hPa 0,0 l/m 2 min 0 min 0,8 UV-I 434 W/m 12,9 km/h (3 Bft)
06.08.2013 18:10 23,3 C 23,4 C 65 % 1014,7 hPa 0,0 l/m 0 min 0 min 0,7 UV-I 183 W/m 15,4 km/h (3 Bft)
06.08.2013 18:12 23,2 C 22,9 C 65 % 1014,7 hPa 0,0 l/m 2 min 0 min 0,9 UV-I 459 W/m 15,4 km/h (3 Bft)
06.08.2013 18:14 23,2 C 22,9 C 65 % 1014,6 hPa 0,0 l/m 2 min 0 min 0,9 UV-I 427 W/m 18,0 km/h (3 Bft)
06.08.2013 18:16 23,1 C 22,9 C 66 % 1014,6 hPa 0,0 l/m 2 min 0 min 0,8 UV-I 417 W/m 12,9 km/h (3 Bft)
06.08.2013 18:18 23,1 C 22,9 C 65 % 1014,6 hPa 0,0 l/m 2 min 0 min 0,8 UV-I 390 W/m 12,9 km/h (3 Bft)
06.08.2013 18:20 23,1 C 22,3 C 65 % 1014,6 hPa 0,0 l/m 2 min 0 min 0,6 UV-I 338 W/m 12,9 km/h (3 Bft)
06.08.2013 18:22 23,0 C 22,3 C 65 % 1014,5 hPa 0,0 l/m 2 min 0 min 0,6 UV-I 367 W/m 12,9 km/h (3 Bft)
06.08.2013 18:24 22,9 C 22,3 C 65 % 1014,6 hPa 0,0 l/m 2 min 0 min 0,0 UV-I 332 W/m 2,6 km/h (1 Bft)
06.08.2013 18:26 22,9 C 22,3 C 65 % 1014,6 hPa 0,0 l/m 0 min 0 min 0,6 UV-I 178 W/m 5,1 km/h (1 Bft)
06.08.2013 18:28 23,0 C 22,3 C 65 % 1014,6 hPa 0,0 l/m 2 min 0 min 0,6 UV-I 318 W/m 10,3 km/h (2 Bft)
06.08.2013 18:30 22,9 C 22,3 C 66 % 1014,7 hPa 0,0 l/m 2 min 0 min 0,0 UV-I 274 W/m 10,3 km/h (2 Bft)
06.08.2013 18:32 23,0 C 22,3 C 65 % 1014,6 hPa 0,0 l/m 0 min 0 min 0,0 UV-I 155 W/m 12,9 km/h (3 Bft)
06.08.2013 18:34 22,9 C 22,3 C 65 % 1014,6 hPa 0,0 l/m 2 min 0 min 0,0 UV-I 213 W/m 20,6 km/h (4 Bft)
06.08.2013 18:36 22,9 C 22,3 C 65 % 1014,7 hPa 0,0 l/m 0 min 0 min 0,0 UV-I 83 W/m 15,4 km/h (3 Bft)
06.08.2013 18:38 22,8 C 22,3 C 65 % 1014,6 hPa 0,0 l/m 0 min 0 min 0,0 UV-I 79 W/m 10,3 km/h (2 Bft)
06.08.2013 18:40 22,8 C 21,8 C 66 % 1014,6 hPa 0,0 l/m 0 min 0 min 0,0 UV-I 76 W/m 5,1 km/h (1 Bft)
06.08.2013 18:42 22,8 C 21,8 C 66 % 1014,5 hPa 0,0 l/m 0 min 0 min 0,0 UV-I 74 W/m 2,6 km/h (1 Bft)
06.08.2013 18:44 22,7 C 21,8 C 66 % 1014,5 hPa 0,0 l/m 0 min 0 min 0,0 UV-I 114 W/m 7,7 km/h (2 Bft)
06.08.2013 18:46 22,7 C 21,8 C 66 % 1014,5 hPa 0,0 l/m 0 min 0 min 0,0 UV-I 104 W/m 7,7 km/h (2 Bft)
06.08.2013 18:48 22,7 C 21,8 C 66 % 1014,4 hPa 0,0 l/m 0 min 0 min 0,0 UV-I 93 W/m 2,6 km/h (1 Bft)
06.08.2013 18:50 22,7 C 22,3 C 66 % 1014,4 hPa 0,0 l/m 0 min 0 min 0,0 UV-I 114 W/m 10,3 km/h (2 Bft)
06.08.2013 18:52 22,7 C 22,3 C 66 % 1014,4 hPa 0,0 l/m 0 min 0 min 0,0 UV-I 167 W/m 18,0 km/h (3 Bft)
06.08.2013 18:54 22,7 C 22,3 C 66 % 1014,4 hPa 0,0 l/m 0 min 0 min 0,0 UV-I 95 W/m 10,3 km/h (2 Bft)
06.08.2013 18:56 22,8 C 22,3 C 66 % 1014,3 hPa 0,0 l/m 0 min 0 min 0,0 UV-I 86 W/m 12,9 km/h (3 Bft)
06.08.2013 18:58 22,8 C 22,3 C 66 % 1014,3 hPa 0,0 l/m 0 min 0 min 0,0 UV-I 84 W/m 15,4 km/h (3 Bft)
06.08.2013 19:00 22,8 C 22,3 C 66 % 1014,2 hPa 0,0 l/m 0 min 0 min 0,0 UV-I 90 W/m 10,3 km/h (2 Bft)
06.08.2013 19:02 22,8 C 22,3 C 66 % 1014,2 hPa 0,0 l/m 0 min 0 min 0,0 UV-I 88 W/m 12,9 km/h (3 Bft)
06.08.2013 19:06 22,7 C 21,8 C 66 % 1014,3 hPa 0,0 l/m 0 min 0 min 0,0 UV-I 77 W/m 12,9 km/h (3 Bft)
06.08.2013 19:08 22,7 C 21,8 C 66 % 1014,3 hPa 0,0 l/m 0 min 0 min 0,0 UV-I 76 W/m 12,9 km/h (3 Bft)
06.08.2013 19:10 22,7 C 21,8 C 66 % 1014,3 hPa 0,0 l/m 0 min 0 min 0,0 UV-I 76 W/m 7,7 km/h (2 Bft)
06.08.2013 19:12 22,7 C 21,8 C 66 % 1014,3 hPa 0,0 l/m 0 min 0 min 0,0 UV-I 72 W/m 15,4 km/h (3 Bft)
06.08.2013 19:14 22,7 C 21,8 C 66 % 1014,3 hPa 0,0 l/m 0 min 0 min 0,0 UV-I 72 W/m 7,7 km/h (2 Bft)
06.08.2013 19:16 22,7 C 21,8 C 66 % 1014,4 hPa 0,0 l/m 0 min 0 min 0,0 UV-I 77 W/m 15,4 km/h (3 Bft)
06.08.2013 19:18 22,7 C 21,8 C 66 % 1014,4 hPa 0,0 l/m 0 min 0 min 0,0 UV-I 83 W/m 7,7 km/h (2 Bft)
06.08.2013 19:20 22,7 C 21,8 C 66 % 1014,4 hPa 0,0 l/m 0 min 0 min 0,0 UV-I 88 W/m 7,7 km/h (2 Bft)
06.08.2013 19:22 22,7 C 21,8 C 65 % 1014,5 hPa 0,0 l/m 0 min 0 min 0,0 UV-I 105 W/m 10,3 km/h (2 Bft)
06.08.2013 19:24 22,7 C 21,8 C 66 % 1014,6 hPa 0,0 l/m 0 min 0 min 0,0 UV-I 107 W/m 5,1 km/h (1 Bft)
06.08.2013 19:26 22,7 C 21,8 C 66 % 1014,6 hPa 0,0 l/m 0 min 0 min 0,0 UV-I 98 W/m 12,9 km/h (3 Bft)
06.08.2013 19:28 22,7 C 21,8 C 66 % 1014,6 hPa 0,0 l/m 0 min 0 min 0,0 UV-I 97 W/m 10,3 km/h (2 Bft)
06.08.2013 19:30 22,7 C 22,3 C 66 % 1014,6 hPa 0,0 l/m 0 min 0 min 0,0 UV-I 100 W/m 2,6 km/h (1 Bft)
06.08.2013 19:32 22,7 C 22,3 C 66 % 1014,8 hPa 0,0 l/m 0 min 0 min 0,0 UV-I 114 W/m 0,0 km/h (0 Bft)
06.08.2013 19:34 22,8 C 22,3 C 66 % 1014,7 hPa 0,0 l/m 0 min 0 min 0,0 UV-I 120 W/m 2,6 km/h (1 Bft)
06.08.2013 19:36 22,8 C 22,3 C 66 % 1014,7 hPa 0,0 l/m 0 min 0 min 0,0 UV-I 107 W/m 2,6 km/h (1 Bft)
06.08.2013 19:38 22,8 C 22,3 C 67 % 1014,7 hPa 0,0 l/m 0 min 0 min 0,0 UV-I 102 W/m 2,6 km/h (1 Bft)
06.08.2013 19:40 22,8 C 22,3 C 66 % 1014,7 hPa 0,0 l/m 0 min 0 min 0,0 UV-I 100 W/m 0,0 km/h (0 Bft)
06.08.2013 19:42 22,7 C 22,3 C 66 % 1014,8 hPa 0,0 l/m 0 min 0 min 0,0 UV-I 91 W/m 7,7 km/h (2 Bft)
06.08.2013 19:44 22,7 C 21,8 C 66 % 1014,8 hPa 0,0 l/m 0 min 0 min 0,0 UV-I 81 W/m 10,3 km/h (2 Bft)
06.08.2013 19:46 22,6 C 21,8 C 66 % 1014,8 hPa 0,0 l/m 0 min 0 min 0,0 UV-I 70 W/m 10,3 km/h (2 Bft)
06.08.2013 19:48 22,5 C 21,8 C 66 % 1014,8 hPa 0,0 l/m 0 min 0 min 0,0 UV-I 69 W/m 12,9 km/h (3 Bft)
06.08.2013 19:50 22,5 C 21,8 C 67 % 1014,7 hPa 0,0 l/m 0 min 0 min 0,0 UV-I 63 W/m 10,3 km/h (2 Bft)
06.08.2013 19:52 22,4 C 21,8 C 66 % 1014,7 hPa 0,0 l/m 0 min 0 min 0,0 UV-I 63 W/m 5,1 km/h (1 Bft)
06.08.2013 19:54 22,4 C 21,8 C 67 % 1014,7 hPa 0,0 l/m 0 min 0 min 0,0 UV-I 62 W/m 10,3 km/h (2 Bft)
06.08.2013 19:56 22,3 C 21,8 C 67 % 1014,7 hPa 0,0 l/m 0 min 0 min 0,0 UV-I 53 W/m 2,6 km/h (1 Bft)
06.08.2013 19:58 22,3 C 21,8 C 67 % 1014,7 hPa 0,0 l/m 0 min 0 min 0,0 UV-I 44 W/m 12,9 km/h (3 Bft)
06.08.2013 20:00 22,3 C 21,2 C 67 % 1014,7 hPa 0,0 l/m 0 min 0 min 0,0 UV-I 44 W/m 2,6 km/h (1 Bft)
06.08.2013 20:02 22,3 C 21,2 C 67 % 1014,7 hPa 0,0 l/m 0 min 0 min 0,0 UV-I 39 W/m 0,0 km/h (0 Bft)
06.08.2013 20:06 22,2 C 21,2 C 67 % 1014,8 hPa 0,0 l/m 0 min 0 min 0,0 UV-I 35 W/m 7,7 km/h (2 Bft)
06.08.2013 20:08 22,1 C 21,2 C 67 % 1014,8 hPa 0,0 l/m 0 min 0 min 0,0 UV-I 35 W/m 2,6 km/h (1 Bft)
06.08.2013 20:10 22,1 C 21,2 C 67 % 1014,8 hPa 0,0 l/m 0 min 0 min 0,0 UV-I 35 W/m 2,6 km/h (1 Bft)
06.08.2013 20:12 22,1 C 21,2 C 67 % 1014,8 hPa 0,0 l/m 0 min 0 min 0,0 UV-I 35 W/m 0,0 km/h (0 Bft)
06.08.2013 20:14 22,0 C 21,2 C 67 % 1014,8 hPa 0,0 l/m 0 min 0 min 0,0 UV-I 33 W/m 2,6 km/h (1 Bft)
06.08.2013 20:16 22,0 C 21,2 C 67 % 1014,8 hPa 0,0 l/m 0 min 0 min 0,0 UV-I 32 W/m 0,0 km/h (0 Bft)
06.08.2013 20:18 21,9 C 21,2 C 67 % 1014,8 hPa 0,0 l/m 0 min 0 min 0,0 UV-I 30 W/m 0,0 km/h (0 Bft)
06.08.2013 20:20 21,9 C 21,2 C 67 % 1014,7 hPa 0,0 l/m 0 min 0 min 0,0 UV-I 28 W/m 2,6 km/h (1 Bft)
06.08.2013 20:22 21,8 C 20,7 C 67 % 1014,7 hPa 0,0 l/m 0 min 0 min 0,0 UV-I 28 W/m 0,0 km/h (0 Bft)
06.08.2013 20:24 21,8 C 20,7 C 68 % 1014,8 hPa 0,0 l/m 0 min 0 min 0,0 UV-I 26 W/m 2,6 km/h (1 Bft)
06.08.2013 20:26 21,8 C 20,7 C 68 % 1014,9 hPa 0,0 l/m 0 min 0 min 0,0 UV-I 25 W/m 0,0 km/h (0 Bft)
06.08.2013 20:28 21,8 C 20,7 C 68 % 1014,9 hPa 0,0 l/m 0 min 0 min 0,0 UV-I 23 W/m 0,0 km/h (0 Bft)
06.08.2013 20:30 21,7 C 20,7 C 68 % 1014,9 hPa 0,0 l/m 0 min 0 min 0,0 UV-I 21 W/m 0,0 km/h (0 Bft)
06.08.2013 20:32 21,7 C 20,7 C 68 % 1014,9 hPa 0,0 l/m 0 min 0 min 0,0 UV-I 21 W/m 2,6 km/h (1 Bft)
06.08.2013 20:34 21,6 C 20,7 C 68 % 1014,9 hPa 0,0 l/m 0 min 0 min 0,0 UV-I 19 W/m 0,0 km/h (0 Bft)
06.08.2013 20:36 21,6 C 20,7 C 68 % 1014,9 hPa 0,0 l/m 0 min 0 min 0,0 UV-I 18 W/m 0,0 km/h (0 Bft)
06.08.2013 20:38 21,5 C 20,1 C 68 % 1014,9 hPa 0,0 l/m 0 min 0 min 0,0 UV-I 18 W/m 0,0 km/h (0 Bft)
06.08.2013 20:40 21,4 C 20,1 C 69 % 1014,9 hPa 0,0 l/m 0 min 0 min 0,0 UV-I 16 W/m 0,0 km/h (0 Bft)
06.08.2013 20:42 21,4 C 20,1 C 69 % 1014,9 hPa 0,0 l/m 0 min 0 min 0,0 UV-I 16 W/m 0,0 km/h (0 Bft)
06.08.2013 20:44 21,4 C 20,1 C 69 % 1014,9 hPa 0,0 l/m 0 min 0 min 0,0 UV-I 16 W/m 0,0 km/h (0 Bft)
06.08.2013 20:46 21,3 C 20,1 C 69 % 1014,9 hPa 0,0 l/m 0 min 0 min 0,0 UV-I 14 W/m 0,0 km/h (0 Bft)
06.08.2013 20:48 21,3 C 20,1 C 69 % 1014,8 hPa 0,0 l/m 0 min 0 min 0,0 UV-I 14 W/m 0,0 km/h (0 Bft)
06.08.2013 20:50 21,2 C 20,1 C 69 % 1014,9 hPa 0,0 l/m 0 min 0 min 0,0 UV-I 12 W/m 0,0 km/h (0 Bft)
06.08.2013 20:52 21,2 C 20,1 C 69 % 1014,8 hPa 0,0 l/m 0 min 0 min 0,0 UV-I 12 W/m 0,0 km/h (0 Bft)
06.08.2013 20:54 21,2 C 20,1 C 69 % 1014,8 hPa 0,0 l/m 0 min 0 min 0,0 UV-I 12 W/m 0,0 km/h (0 Bft)
06.08.2013 20:56 21,1 C 20,1 C 70 % 1014,9 hPa 0,0 l/m 0 min 0 min 0,0 UV-I 11 W/m 0,0 km/h (0 Bft)
06.08.2013 20:58 21,1 C 19,6 C 70 % 1014,8 hPa 0,0 l/m 0 min 0 min 0,0 UV-I 11 W/m 0,0 km/h (0 Bft)
06.08.2013 21:00 21,0 C 19,6 C 70 % 1014,8 hPa 0,0 l/m 0 min 0 min 0,0 UV-I 9 W/m 0,0 km/h (0 Bft)
06.08.2013 21:02 21,0 C 19,6 C 70 % 1014,8 hPa 0,0 l/m 0 min 0 min 0,0 UV-I 9 W/m 0,0 km/h (0 Bft)
06.08.2013 21:05 20,8 C 19,6 C 71 % 1014,8 hPa 0,0 l/m 0 min 0 min 0,0 UV-I 7 W/m 0,0 km/h (0 Bft)
06.08.2013 21:06 20,8 C 19,6 C 71 % 1014,8 hPa 0,0 l/m 0 min 0 min 0,0 UV-I 7 W/m 0,0 km/h (0 Bft)
06.08.2013 21:08 20,7 C 19,0 C 71 % 1014,8 hPa 0,0 l/m 0 min 0 min 0,0 UV-I 7 W/m 0,0 km/h (0 Bft)
06.08.2013 21:10 20,7 C 19,0 C 71 % 1014,8 hPa 0,0 l/m 0 min 0 min 0,0 UV-I 5 W/m 0,0 km/h (0 Bft)
06.08.2013 21:12 20,6 C 19,0 C 72 % 1014,8 hPa 0,0 l/m 0 min 0 min 0,0 UV-I 5 W/m 0,0 km/h (0 Bft)
06.08.2013 21:14 20,6 C 19,0 C 72 % 1014,8 hPa 0,0 l/m 0 min 0 min 0,0 UV-I 5 W/m 0,0 km/h (0 Bft)
06.08.2013 21:16 20,4 C 18,4 C 72 % 1014,8 hPa 0,0 l/m 0 min 0 min 0,0 UV-I 0 W/m 0,0 km/h (0 Bft)
06.08.2013 21:18 20,4 C 18,4 C 72 % 1014,8 hPa 0,0 l/m 0 min 0 min 0,0 UV-I 0 W/m 0,0 km/h (0 Bft)
06.08.2013 21:20 20,3 C 18,4 C 72 % 1014,8 hPa 0,0 l/m 0 min 0 min 0,0 UV-I 0 W/m 0,0 km/h (0 Bft)
06.08.2013 21:22 20,3 C 18,4 C 72 % 1014,8 hPa 0,0 l/m 0 min 0 min 0,0 UV-I 0 W/m 0,0 km/h (0 Bft)
06.08.2013 21:24 20,3 C 18,4 C 72 % 1014,8 hPa 0,0 l/m 0 min 0 min 0,0 UV-I 0 W/m 0,0 km/h (0 Bft)
06.08.2013 21:26 20,2 C 18,4 C 73 % 1014,8 hPa 0,0 l/m 0 min 0 min 0,0 UV-I 0 W/m 0,0 km/h (0 Bft)
06.08.2013 21:28 20,1 C 18,4 C 73 % 1014,8 hPa 0,0 l/m 0 min 0 min 0,0 UV-I 0 W/m 0,0 km/h (0 Bft)
06.08.2013 21:30 20,0 C 18,4 C 73 % 1014,8 hPa 0,0 l/m 0 min 0 min 0,0 UV-I 0 W/m 0,0 km/h (0 Bft)
06.08.2013 21:32 19,9 C 17,9 C 74 % 1014,8 hPa 0,0 l/m 0 min 0 min 0,0 UV-I 0 W/m 0,0 km/h (0 Bft)
06.08.2013 21:34 19,8 C 17,9 C 75 % 1014,8 hPa 0,0 l/m 0 min 0 min 0,0 UV-I 0 W/m 0,0 km/h (0 Bft)
06.08.2013 21:36 19,7 C 17,9 C 75 % 1014,8 hPa 0,0 l/m 0 min 0 min 0,0 UV-I 0 W/m 0,0 km/h (0 Bft)
06.08.2013 21:38 19,6 C 17,9 C 75 % 1014,8 hPa 0,0 l/m 0 min 0 min 0,0 UV-I 0 W/m 0,0 km/h (0 Bft)
06.08.2013 21:40 19,6 C 17,9 C 75 % 1014,7 hPa 0,0 l/m 0 min 0 min 0,0 UV-I 0 W/m 0,0 km/h (0 Bft)
06.08.2013 21:42 19,6 C 17,3 C 75 % 1014,7 hPa 0,0 l/m 0 min 0 min 0,0 UV-I 0 W/m 0,0 km/h (0 Bft)
06.08.2013 21:44 19,6 C 17,9 C 75 % 1014,7 hPa 0,0 l/m 0 min 0 min 0,0 UV-I 0 W/m 0,0 km/h (0 Bft)
06.08.2013 21:46 19,7 C 17,9 C 75 % 1014,7 hPa 0,0 l/m 0 min 0 min 0,0 UV-I 0 W/m 0,0 km/h (0 Bft)
06.08.2013 21:48 19,7 C 17,9 C 75 % 1014,8 hPa 0,0 l/m 0 min 0 min 0,0 UV-I 0 W/m 0,0 km/h (0 Bft)
06.08.2013 21:50 19,6 C 17,9 C 75 % 1014,8 hPa 0,0 l/m 0 min 0 min 0,0 UV-I 0 W/m 0,0 km/h (0 Bft)
06.08.2013 21:52 19,5 C 17,3 C 76 % 1014,8 hPa 0,0 l/m 0 min 0 min 0,0 UV-I 0 W/m 0,0 km/h (0 Bft)
06.08.2013 21:54 19,3 C 17,3 C 76 % 1014,7 hPa 0,0 l/m 0 min 0 min 0,0 UV-I 0 W/m 0,0 km/h (0 Bft)
06.08.2013 21:56 19,2 C 17,3 C 76 % 1014,7 hPa 0,0 l/m 0 min 0 min 0,0 UV-I 0 W/m 0,0 km/h (0 Bft)
06.08.2013 21:58 19,2 C 17,3 C 77 % 1014,7 hPa 0,0 l/m 0 min 0 min 0,0 UV-I 0 W/m 0,0 km/h (0 Bft)
06.08.2013 22:00 19,1 C 17,3 C 77 % 1014,6 hPa 0,0 l/m 0 min 0 min 0,0 UV-I 0 W/m 0,0 km/h (0 Bft)
06.08.2013 22:02 19,0 C 16,8 C 77 % 1014,7 hPa 0,0 l/m 0 min 0 min 0,0 UV-I 0 W/m 0,0 km/h (0 Bft)
06.08.2013 22:06 18,9 C 16,8 C 77 % 1014,7 hPa 0,0 l/m 0 min 0 min 0,0 UV-I 0 W/m 0,0 km/h (0 Bft)
06.08.2013 22:08 18,9 C 16,8 C 78 % 1014,8 hPa 0,0 l/m 0 min 0 min 0,0 UV-I 0 W/m 0,0 km/h (0 Bft)
06.08.2013 22:10 18,9 C 16,8 C 78 % 1014,8 hPa 0,0 l/m 0 min 0 min 0,0 UV-I 0 W/m 0,0 km/h (0 Bft)
06.08.2013 22:12 18,8 C 16,8 C 78 % 1014,8 hPa 0,0 l/m 0 min 0 min 0,0 UV-I 0 W/m 0,0 km/h (0 Bft)
06.08.2013 22:14 18,7 C 16,8 C 79 % 1014,9 hPa 0,0 l/m 0 min 0 min 0,0 UV-I 0 W/m 0,0 km/h (0 Bft)
06.08.2013 22:16 18,7 C 16,8 C 79 % 1014,8 hPa 0,0 l/m 0 min 0 min 0,0 UV-I 0 W/m 0,0 km/h (0 Bft)
06.08.2013 22:18 18,6 C 16,8 C 79 % 1014,9 hPa 0,0 l/m 0 min 0 min 0,0 UV-I 0 W/m 0,0 km/h (0 Bft)
06.08.2013 22:20 18,4 C 16,8 C 79 % 1014,9 hPa 0,0 l/m 0 min 0 min 0,0 UV-I 0 W/m 0,0 km/h (0 Bft)
06.08.2013 22:22 18,3 C 16,2 C 80 % 1014,9 hPa 0,0 l/m 0 min 0 min 0,0 UV-I 0 W/m 0,0 km/h (0 Bft)
06.08.2013 22:24 18,3 C 16,2 C 80 % 1015,0 hPa 0,0 l/m 0 min 0 min 0,0 UV-I 0 W/m 0,0 km/h (0 Bft)
06.08.2013 22:26 18,3 C 16,2 C 80 % 1015,0 hPa 0,0 l/m 0 min 0 min 0,0 UV-I 0 W/m 0,0 km/h (0 Bft)
06.08.2013 22:28 18,3 C 16,2 C 80 % 1014,9 hPa 0,0 l/m 0 min 0 min 0,0 UV-I 0 W/m 0,0 km/h (0 Bft)
06.08.2013 22:30 18,3 C 16,2 C 80 % 1014,9 hPa 0,0 l/m 0 min 0 min 0,0 UV-I 0 W/m 0,0 km/h (0 Bft)
06.08.2013 22:32 18,4 C 16,8 C 80 % 1014,9 hPa 0,0 l/m 0 min 0 min 0,0 UV-I 0 W/m 0,0 km/h (0 Bft)
06.08.2013 22:34 18,4 C 16,8 C 80 % 1015,0 hPa 0,0 l/m 0 min 0 min 0,0 UV-I 0 W/m 0,0 km/h (0 Bft)
06.08.2013 22:36 18,4 C 16,8 C 80 % 1015,0 hPa 0,0 l/m 0 min 0 min 0,0 UV-I 0 W/m 0,0 km/h (0 Bft)
06.08.2013 22:38 18,3 C 16,8 C 80 % 1015,0 hPa 0,0 l/m 0 min 0 min 0,0 UV-I 0 W/m 0,0 km/h (0 Bft)
06.08.2013 22:40 18,2 C 16,8 C 80 % 1015,0 hPa 0,0 l/m 0 min 0 min 0,0 UV-I 0 W/m 0,0 km/h (0 Bft)
06.08.2013 22:42 18,2 C 16,2 C 80 % 1015,0 hPa 0,0 l/m 0 min 0 min 0,0 UV-I 0 W/m 0,0 km/h (0 Bft)
06.08.2013 22:44 18,1 C 16,2 C 81 % 1014,9 hPa 0,0 l/m 0 min 0 min 0,0 UV-I 0 W/m 0,0 km/h (0 Bft)
06.08.2013 22:46 18,1 C 16,2 C 80 % 1014,9 hPa 0,0 l/m 0 min 0 min 0,0 UV-I 0 W/m 0,0 km/h (0 Bft)
06.08.2013 22:48 18,0 C 16,2 C 81 % 1015,0 hPa 0,0 l/m 0 min 0 min 0,0 UV-I 0 W/m 0,0 km/h (0 Bft)
06.08.2013 22:50 17,9 C 16,2 C 81 % 1015,0 hPa 0,0 l/m 0 min 0 min 0,0 UV-I 0 W/m 0,0 km/h (0 Bft)
06.08.2013 22:52 17,9 C 16,2 C 81 % 1015,0 hPa 0,0 l/m 0 min 0 min 0,0 UV-I 0 W/m 0,0 km/h (0 Bft)
06.08.2013 22:54 17,8 C 16,2 C 81 % 1015,0 hPa 0,0 l/m 0 min 0 min 0,0 UV-I 0 W/m 0,0 km/h (0 Bft)
06.08.2013 22:56 17,8 C 16,2 C 82 % 1015,1 hPa 0,0 l/m 0 min 0 min 0,0 UV-I 0 W/m 0,0 km/h (0 Bft)
06.08.2013 22:58 17,7 C 15,7 C 82 % 1015,0 hPa 0,0 l/m 0 min 0 min 0,0 UV-I 0 W/m 0,0 km/h (0 Bft)
06.08.2013 23:00 17,7 C 15,7 C 82 % 1015,1 hPa 0,0 l/m 0 min 0 min 0,0 UV-I 0 W/m 0,0 km/h (0 Bft)
06.08.2013 23:02 17,7 C 16,2 C 81 % 1015,0 hPa 0,0 l/m 0 min 0 min 0,0 UV-I 0 W/m 0,0 km/h (0 Bft)
06.08.2013 23:06 17,9 C 16,2 C 81 % 1015,0 hPa 0,0 l/m 0 min 0 min 0,0 UV-I 0 W/m 0,0 km/h (0 Bft)
06.08.2013 23:08 17,9 C 16,2 C 81 % 1015,0 hPa 0,0 l/m 0 min 0 min 0,0 UV-I 0 W/m 0,0 km/h (0 Bft)
06.08.2013 23:10 17,8 C 16,2 C 81 % 1014,9 hPa 0,0 l/m 0 min 0 min 0,0 UV-I 0 W/m 0,0 km/h (0 Bft)
06.08.2013 23:12 17,8 C 15,7 C 81 % 1014,9 hPa 0,0 l/m 0 min 0 min 0,0 UV-I 0 W/m 0,0 km/h (0 Bft)
06.08.2013 23:14 17,7 C 16,2 C 81 % 1014,8 hPa 0,0 l/m 0 min 0 min 0,0 UV-I 0 W/m 0,0 km/h (0 Bft)
06.08.2013 23:16 17,8 C 16,2 C 81 % 1014,7 hPa 0,0 l/m 0 min 0 min 0,0 UV-I 0 W/m 0,0 km/h (0 Bft)
06.08.2013 23:18 17,8 C 16,2 C 81 % 1014,8 hPa 0,0 l/m 0 min 0 min 0,0 UV-I 0 W/m 0,0 km/h (0 Bft)
06.08.2013 23:20 17,9 C 16,2 C 81 % 1014,9 hPa 0,0 l/m 0 min 0 min 0,0 UV-I 0 W/m 0,0 km/h (0 Bft)
06.08.2013 23:22 17,9 C 16,8 C 81 % 1014,9 hPa 0,0 l/m 0 min 0 min 0,0 UV-I 0 W/m 0,0 km/h (0 Bft)
06.08.2013 23:24 17,9 C 16,8 C 81 % 1014,8 hPa 0,0 l/m 0 min 0 min 0,0 UV-I 0 W/m 0,0 km/h (0 Bft)
06.08.2013 23:26 17,9 C 16,8 C 81 % 1014,7 hPa 0,0 l/m 0 min 0 min 0,0 UV-I 0 W/m 0,0 km/h (0 Bft)
06.08.2013 23:28 17,8 C 16,8 C 81 % 1014,7 hPa 0,0 l/m 0 min 0 min 0,0 UV-I 0 W/m 0,0 km/h (0 Bft)
06.08.2013 23:30 17,8 C 16,8 C 81 % 1014,7 hPa 0,0 l/m 0 min 0 min 0,0 UV-I 0 W/m 0,0 km/h (0 Bft)
06.08.2013 23:32 17,8 C 16,8 C 81 % 1014,7 hPa 0,0 l/m 0 min 0 min 0,0 UV-I 0 W/m 0,0 km/h (0 Bft)
06.08.2013 23:34 17,8 C 16,8 C 81 % 1014,6 hPa 0,0 l/m 0 min 0 min 0,0 UV-I 0 W/m 0,0 km/h (0 Bft)
06.08.2013 23:36 17,8 C 16,8 C 82 % 1014,7 hPa 0,0 l/m 0 min 0 min 0,0 UV-I 0 W/m 0,0 km/h (0 Bft)
06.08.2013 23:38 17,8 C 16,8 C 82 % 1014,7 hPa 0,0 l/m 0 min 0 min 0,0 UV-I 0 W/m 0,0 km/h (0 Bft)
06.08.2013 23:40 17,7 C 16,2 C 82 % 1014,8 hPa 0,0 l/m 0 min 0 min 0,0 UV-I 0 W/m 0,0 km/h (0 Bft)
06.08.2013 23:42 17,6 C 16,2 C 82 % 1014,8 hPa 0,0 l/m 0 min 0 min 0,0 UV-I 0 W/m 0,0 km/h (0 Bft)
06.08.2013 23:44 17,5 C 16,2 C 83 % 1014,8 hPa 0,0 l/m 0 min 0 min 0,0 UV-I 0 W/m 0,0 km/h (0 Bft)
06.08.2013 23:46 17,4 C 16,2 C 83 % 1014,9 hPa 0,0 l/m 0 min 0 min 0,0 UV-I 0 W/m 0,0 km/h (0 Bft)
06.08.2013 23:48 17,4 C 15,7 C 83 % 1014,9 hPa 0,0 l/m 0 min 0 min 0,0 UV-I 0 W/m 0,0 km/h (0 Bft)
06.08.2013 23:50 17,3 C 15,7 C 83 % 1015,0 hPa 0,0 l/m 0 min 0 min 0,0 UV-I 0 W/m 0,0 km/h (0 Bft)
06.08.2013 23:52 17,3 C 15,7 C 84 % 1014,9 hPa 0,0 l/m 0 min 0 min 0,0 UV-I 0 W/m 0,0 km/h (0 Bft)
06.08.2013 23:54 17,3 C 16,2 C 84 % 1014,8 hPa 0,0 l/m 0 min 0 min 0,0 UV-I 0 W/m 0,0 km/h (0 Bft)
06.08.2013 23:56 17,3 C 16,2 C 84 % 1014,8 hPa 0,0 l/m 0 min 0 min 0,0 UV-I 0 W/m 0,0 km/h (0 Bft)
06.08.2013 23:58 17,3 C 16,2 C 84 % 1014,8 hPa 0,0 l/m 0 min 0 min 0,0 UV-I 0 W/m 0,0 km/h (0 Bft)
_ Min-Zeit 06:46 06:38 14:32 00:00 - - - - - 00:08
Minimum _ 16,9 C 15,7 C 55 % 1010,9 hPa - - - - - 0,0 km/h (0 Bft)
_ Max-Zeit 00:48 12:02 06:52 10:42 00:00 08:24 00:16 12:40 12:50 03:58
Maximum _ 25,4 C 30,7 C 84 % 1016,0 hPa 0,0 l/m 2 min 2 min 4,7 UV-I 942 W/m 33,5 km/h
S (5 Bft)
Durchschnitt _ 21,4 C 21,3 C 70 % 1014,5 hPa #0,0 l/m #5:50 h #6 min. 2,2 UV-I 326 W/m 5,1 km/h (1 Bft)
© 2013 W. Hausmann